Time,TemperatureF,DewpointF,PressureIn,WindDirection,WindDirectionDegrees,WindSpeedMPH,WindSpeedGustMPH,Humidity,HourlyPrecipIn,Conditions,Clouds,dailyrainin,SoftwareType,DateUTC
2013-02-13 00:00:00,33.1,33.1,29.95,NNE,22,0.0,4.1,100,0.04,,OVC004,0.00,VWS V14.01,2013-02-13 06:00:00,
2013-02-13 00:02:00,33.1,33.1,29.95,North,2,0.0,3.5,100,0.04,,OVC017,0.00,VWS V14.01,2013-02-13 06:02:00,
2013-02-13 00:04:00,33.1,33.1,29.95,NNE,17,3.3,3.5,100,0.04,,OVC017,0.00,VWS V14.01,2013-02-13 06:04:00,
2013-02-13 00:06:00,33.1,33.1,29.95,North,10,3.3,4.7,100,0.04,,OVC004,0.00,VWS V14.01,2013-02-13 06:06:00,
2013-02-13 00:08:00,33.1,33.1,29.95,NNE,24,4.4,5.2,100,0.04,,OVC017,0.00,VWS V14.01,2013-02-13 06:08:00,
2013-02-13 00:10:00,33.1,33.1,29.95,NNE,23,4.4,8.1,100,0.04,,OVC017,0.00,VWS V14.01,2013-02-13 06:10:00,
2013-02-13 00:11:00,33.1,33.1,29.95,NNE,32,3.9,7.6,100,0.00,,OVC004,0.00,VWS V14.01,2013-02-13 06:11:00,
2013-02-13 00:12:00,33.1,33.1,29.95,North,0,6.1,7.0,100,0.00,,OVC017,0.00,VWS V14.01,2013-02-13 06:12:00,
2013-02-13 00:14:00,33.3,33.3,29.95,NNE,24,5.0,7.6,100,0.00,,OVC017,0.00,VWS V14.01,2013-02-13 06:14:00,
2013-02-13 00:16:00,33.3,33.3,29.95,NE,35,3.3,7.0,100,0.00,,OVC004,0.00,VWS V14.01,2013-02-13 06:16:00,
2013-02-13 00:18:00,33.3,33.3,29.95,NNE,12,0.0,3.5,100,0.00,,OVC017,0.00,VWS V14.01,2013-02-13 06:18:00,
2013-02-13 00:20:00,33.3,33.3,29.95,North,6,4.4,5.8,100,0.00,,OVC017,0.00,VWS V14.01,2013-02-13 06:20:00,
2013-02-13 00:21:00,33.3,33.3,29.95,NNE,31,3.3,5.8,100,0.00,,OVC004,0.00,VWS V14.01,2013-02-13 06:21:00,
2013-02-13 00:22:00,33.3,33.3,29.95,North,0,2.8,4.7,100,0.00,,OVC017,0.00,VWS V14.01,2013-02-13 06:22:00,
2013-02-13 00:24:00,33.3,33.3,29.95,NNE,23,3.9,4.7,100,0.00,,OVC017,0.00,VWS V14.01,2013-02-13 06:24:00,
2013-02-13 00:26:00,33.3,33.3,29.95,NE,42,4.4,5.2,100,0.00,,OVC014,0.00,VWS V14.01,2013-02-13 06:26:00,
2013-02-13 00:28:00,33.3,33.3,29.95,NNE,22,4.4,5.2,100,0.00,,OVC017,0.00,VWS V14.01,2013-02-13 06:28:00,
2013-02-13 00:30:00,33.3,33.3,29.95,NE,52,4.4,7.0,100,0.00,,OVC017,0.00,VWS V14.01,2013-02-13 06:30:00,
2013-02-13 00:31:00,33.3,33.3,29.95,NE,37,3.3,5.2,100,0.00,,OVC014,0.00,VWS V14.01,2013-02-13 06:31:00,
2013-02-13 00:32:00,33.3,33.3,29.95,NNE,12,6.7,7.0,100,0.00,,OVC017,0.00,VWS V14.01,2013-02-13 06:32:00,
2013-02-13 00:34:00,33.3,33.3,29.95,NNE,21,3.3,6.4,100,0.00,,OVC017,0.00,VWS V14.01,2013-02-13 06:34:00,
2013-02-13 00:36:00,33.3,33.3,29.95,NE,39,3.9,7.0,100,0.00,,OVC014,0.00,VWS V14.01,2013-02-13 06:36:00,
2013-02-13 00:38:00,33.3,33.3,29.95,NNE,31,4.4,4.7,100,0.00,,OVC017,0.00,VWS V14.01,2013-02-13 06:38:00,
2013-02-13 00:40:00,33.3,33.3,29.95,NNE,31,4.4,7.0,100,0.00,,OVC017,0.00,VWS V14.01,2013-02-13 06:40:00,
2013-02-13 00:41:00,33.3,33.3,29.95,NNE,19,3.3,4.7,100,0.00,,OVC011,0.00,VWS V14.01,2013-02-13 06:41:00,
2013-02-13 00:42:00,33.3,33.3,29.95,NNE,32,5.0,6.4,100,0.00,,OVC017,0.00,VWS V14.01,2013-02-13 06:42:00,
2013-02-13 00:44:00,33.3,33.3,29.95,ENE,65,4.4,7.6,100,0.00,,OVC017,0.00,VWS V14.01,2013-02-13 06:44:00,
2013-02-13 00:46:00,33.3,33.3,29.95,North,357,2.8,4.7,100,0.00,,OVC011,0.00,VWS V14.01,2013-02-13 06:46:00,
2013-02-13 00:48:00,33.3,33.3,29.95,NNE,15,3.3,4.1,100,0.00,,OVC017,0.00,VWS V14.01,2013-02-13 06:48:00,
2013-02-13 00:50:00,33.3,33.3,29.95,North,357,0.0,3.5,100,0.00,,OVC017,0.00,VWS V14.01,2013-02-13 06:50:00,
2013-02-13 00:51:00,33.3,33.3,29.95,North,3,3.3,4.7,100,0.00,,OVC011,0.00,VWS V14.01,2013-02-13 06:51:00,
2013-02-13 00:52:00,33.3,33.3,29.95,North,0,3.3,4.7,100,0.00,,OVC017,0.00,VWS V14.01,2013-02-13 06:52:00,
2013-02-13 00:54:00,33.3,33.3,29.95,North,4,5.0,5.2,100,0.00,,OVC017,0.00,VWS V14.01,2013-02-13 06:54:00,
2013-02-13 00:56:00,33.3,33.3,29.95,North,2,3.9,5.2,100,0.00,,OVC011,0.00,VWS V14.01,2013-02-13 06:56:00,
2013-02-13 00:58:00,33.3,33.3,29.95,NNE,20,0.0,5.2,100,0.00,,OVC017,0.00,VWS V14.01,2013-02-13 06:58:00,
2013-02-13 01:00:00,33.3,33.3,29.95,NNE,15,2.8,5.2,100,0.00,,OVC017,0.00,VWS V14.01,2013-02-13 07:00:00,
2013-02-13 01:01:00,33.3,33.3,29.95,North,3,2.8,5.2,100,0.00,,OVC011,0.00,VWS V14.01,2013-02-13 07:01:00,
2013-02-13 01:02:00,33.3,33.3,29.95,North,3,0.0,4.1,100,0.00,,OVC017,0.00,VWS V14.01,2013-02-13 07:02:00,
2013-02-13 01:04:00,33.3,33.3,29.95,North,353,0.0,5.2,100,0.00,,OVC017,0.00,VWS V14.01,2013-02-13 07:04:00,
2013-02-13 01:06:00,33.3,33.3,29.95,North,353,0.0,0.0,100,0.00,,OVC011,0.00,VWS V14.01,2013-02-13 07:06:00,
2013-02-13 01:08:00,33.3,33.3,29.95,NNW,329,2.8,2.9,100,0.00,,OVC017,0.00,VWS V14.01,2013-02-13 07:08:00,
2013-02-13 01:10:00,33.3,33.3,29.95,NW,322,2.8,3.5,100,0.00,,OVC017,0.00,VWS V14.01,2013-02-13 07:10:00,
2013-02-13 01:11:00,33.3,33.3,29.95,North,353,3.9,4.1,100,0.00,,OVC011,0.00,VWS V14.01,2013-02-13 07:11:00,
2013-02-13 01:12:00,33.3,33.3,29.95,North,353,0.0,4.1,100,0.00,,OVC017,0.00,VWS V14.01,2013-02-13 07:12:00,
2013-02-13 01:14:00,33.3,33.3,29.95,North,357,5.0,5.2,100,0.00,,OVC017,0.00,VWS V14.01,2013-02-13 07:14:00,
2013-02-13 01:16:00,33.3,33.3,29.95,North,357,3.3,4.7,100,0.00,,OVC011,0.00,VWS V14.01,2013-02-13 07:16:00,
2013-02-13 01:18:00,33.3,33.3,29.95,North,2,0.0,3.5,100,0.00,,OVC017,0.00,VWS V14.01,2013-02-13 07:18:00,
2013-02-13 01:20:00,33.3,33.3,29.95,North,3,0.0,0.0,100,0.00,,OVC017,0.00,VWS V14.01,2013-02-13 07:20:00,
2013-02-13 01:21:00,33.3,33.3,29.95,North,1,0.0,0.0,100,0.00,,OVC003,0.00,VWS V14.01,2013-02-13 07:21:00,
2013-02-13 01:22:00,33.3,33.3,29.95,North,1,0.0,0.0,100,0.00,,OVC017,0.00,VWS V14.01,2013-02-13 07:22:00,
2013-02-13 01:24:00,33.3,33.3,29.95,North,357,3.3,4.7,100,0.00,,OVC017,0.00,VWS V14.01,2013-02-13 07:24:00,
2013-02-13 01:26:00,33.3,33.3,29.95,North,349,4.4,5.2,100,0.00,,OVC003,0.00,VWS V14.01,2013-02-13 07:26:00,
2013-02-13 01:28:00,33.3,33.3,29.95,North,1,2.8,5.2,100,0.00,,OVC017,0.00,VWS V14.01,2013-02-13 07:28:00,
2013-02-13 01:30:00,33.3,33.3,29.95,NNW,339,4.4,4.7,100,0.00,,OVC017,0.00,VWS V14.01,2013-02-13 07:30:00,
2013-02-13 01:31:00,33.3,33.3,29.95,NNE,23,3.3,4.7,100,0.00,,OVC003,0.00,VWS V14.01,2013-02-13 07:31:00,
2013-02-13 01:32:00,33.3,33.3,29.95,North,0,3.3,4.7,100,0.00,,OVC017,0.00,VWS V14.01,2013-02-13 07:32:00,
2013-02-13 01:34:00,33.3,33.3,29.95,NNW,346,3.3,4.1,100,0.00,,OVC017,0.00,VWS V14.01,2013-02-13 07:34:00,
2013-02-13 01:36:00,33.3,33.3,29.95,NNW,345,5.0,5.2,100,0.00,,OVC003,0.00,VWS V14.01,2013-02-13 07:36:00,
2013-02-13 01:38:00,33.3,33.3,29.95,NW,326,3.3,5.2,100,0.00,,OVC017,0.00,VWS V14.01,2013-02-13 07:38:00,
2013-02-13 01:40:00,33.3,33.3,29.95,North,5,2.8,4.1,100,0.00,,OVC017,0.00,VWS V14.01,2013-02-13 07:40:00,
2013-02-13 01:41:00,33.3,33.3,29.95,NNW,345,3.3,3.5,100,0.00,,OVC015,0.00,VWS V14.01,2013-02-13 07:41:00,
2013-02-13 01:42:00,33.3,33.3,29.95,NNW,345,3.3,3.5,100,0.00,,OVC017,0.00,VWS V14.01,2013-02-13 07:42:00,
2013-02-13 01:44:00,33.3,33.3,29.95,NNW,342,3.3,6.4,100,0.00,,OVC017,0.00,VWS V14.01,2013-02-13 07:44:00,
2013-02-13 01:46:00,33.3,33.3,29.95,North,353,0.0,7.6,100,0.00,,OVC015,0.00,VWS V14.01,2013-02-13 07:46:00,
2013-02-13 01:48:00,33.3,33.3,29.95,North,357,3.9,4.1,100,0.00,,OVC017,0.00,VWS V14.01,2013-02-13 07:48:00,
2013-02-13 01:50:00,33.3,33.3,29.95,WNW,299,3.3,6.4,100,0.00,,OVC017,0.00,VWS V14.01,2013-02-13 07:50:00,
2013-02-13 01:51:00,33.3,33.3,29.95,NNW,346,0.0,5.2,100,0.00,,OVC015,0.00,VWS V14.01,2013-02-13 07:51:00,
2013-02-13 01:52:00,33.3,33.3,29.95,NW,318,3.3,5.2,100,0.00,,OVC017,0.00,VWS V14.01,2013-02-13 07:52:00,
2013-02-13 01:54:00,33.3,33.3,29.95,NW,306,3.3,6.4,100,0.00,,OVC017,0.00,VWS V14.01,2013-02-13 07:54:00,
2013-02-13 01:56:00,33.3,33.3,29.95,NNW,327,0.0,7.6,100,0.00,,OVC017,0.00,VWS V14.01,2013-02-13 07:56:00,
2013-02-13 01:57:00,33.3,33.3,29.95,WNW,289,3.3,4.7,100,0.00,,OVC015,0.00,VWS V14.01,2013-02-13 07:57:00,
2013-02-13 01:58:00,33.3,33.3,29.95,NNE,17,4.4,4.7,100,0.00,,OVC017,0.00,VWS V14.01,2013-02-13 07:58:00,
2013-02-13 02:00:00,33.3,33.3,29.95,NNW,332,5.0,7.0,100,0.00,,OVC017,0.00,VWS V14.01,2013-02-13 08:00:00,
2013-02-13 02:02:00,33.3,33.3,29.95,North,353,3.9,7.0,100,0.00,,OVC015,0.00,VWS V14.01,2013-02-13 08:02:00,
2013-02-13 02:04:00,33.3,33.3,29.95,NNE,19,3.9,6.4,100,0.00,,OVC017,0.00,VWS V14.01,2013-02-13 08:04:00,
2013-02-13 02:06:00,33.3,33.3,29.95,NNW,335,0.0,4.7,100,0.00,,OVC017,0.00,VWS V14.01,2013-02-13 08:06:00,
2013-02-13 02:07:00,33.3,33.3,29.95,North,0,4.4,4.7,100,0.00,,OVC015,0.00,VWS V14.01,2013-02-13 08:07:00,
2013-02-13 02:08:00,33.3,33.3,29.95,NE,48,7.2,7.6,100,0.00,,OVC017,0.00,VWS V14.01,2013-02-13 08:08:00,
2013-02-13 02:10:00,33.3,33.3,29.95,North,353,3.9,7.6,100,0.00,,OVC017,0.00,VWS V14.01,2013-02-13 08:10:00,
2013-02-13 02:12:00,33.3,33.3,29.95,North,349,3.3,7.0,100,0.00,,OVC015,0.00,VWS V14.01,2013-02-13 08:12:00,
2013-02-13 02:14:00,33.3,33.3,29.95,North,7,4.4,5.2,100,0.00,,OVC017,0.00,VWS V14.01,2013-02-13 08:14:00,
2013-02-13 02:16:00,33.3,33.3,29.95,WNW,303,0.0,5.2,100,0.00,,OVC017,0.00,VWS V14.01,2013-02-13 08:16:00,
2013-02-13 02:17:00,33.3,33.3,29.95,North,0,4.4,5.2,100,0.00,,OVC015,0.00,VWS V14.01,2013-02-13 08:17:00,
2013-02-13 02:18:00,33.3,33.3,29.95,NNE,23,3.9,8.1,100,0.00,,OVC017,0.00,VWS V14.01,2013-02-13 08:18:00,
2013-02-13 02:20:00,33.3,33.3,29.95,NNW,345,4.4,4.7,100,0.00,,OVC017,0.00,VWS V14.01,2013-02-13 08:20:00,
2013-02-13 02:22:00,33.3,33.3,29.95,North,357,0.0,4.7,100,0.00,,OVC015,0.00,VWS V14.01,2013-02-13 08:22:00,
2013-02-13 02:24:00,33.3,33.3,29.95,NW,325,0.0,6.4,100,0.00,,OVC017,0.00,VWS V14.01,2013-02-13 08:24:00,
2013-02-13 02:26:00,33.3,33.3,29.95,NNW,331,5.0,7.0,100,0.00,,OVC017,0.00,VWS V14.01,2013-02-13 08:26:00,
2013-02-13 02:27:00,33.3,33.3,29.95,North,10,3.3,7.0,100,0.00,,OVC015,0.00,VWS V14.01,2013-02-13 08:27:00,
2013-02-13 02:28:00,33.3,33.3,29.95,WNW,300,3.9,5.2,100,0.00,,OVC017,0.00,VWS V14.01,2013-02-13 08:28:00,
2013-02-13 02:30:00,33.3,33.3,29.95,North,9,2.8,4.1,100,0.00,,OVC017,0.00,VWS V14.01,2013-02-13 08:30:00,
2013-02-13 02:32:00,33.3,33.3,29.95,NNW,343,5.0,7.0,100,0.00,,OVC015,0.00,VWS V14.01,2013-02-13 08:32:00,
2013-02-13 02:34:00,33.3,33.3,29.95,NNW,340,8.3,8.7,100,0.00,,OVC017,0.00,VWS V14.01,2013-02-13 08:34:00,
2013-02-13 02:36:00,33.3,33.3,29.95,North,353,4.4,8.7,100,0.00,,OVC017,0.00,VWS V14.01,2013-02-13 08:36:00,
2013-02-13 02:37:00,33.3,33.3,29.95,North,353,3.3,5.2,100,0.00,,OVC015,0.00,VWS V14.01,2013-02-13 08:37:00,
2013-02-13 02:38:00,33.3,33.3,29.95,North,349,0.0,4.7,100,0.00,,OVC017,0.00,VWS V14.01,2013-02-13 08:38:00,
2013-02-13 02:40:00,33.3,33.3,29.95,North,357,7.8,8.1,100,0.00,,OVC017,0.00,VWS V14.01,2013-02-13 08:40:00,
2013-02-13 02:42:00,33.3,33.3,29.95,NNE,14,7.8,8.1,100,0.00,,OVC017,0.00,VWS V14.01,2013-02-13 08:42:00,
2013-02-13 02:44:00,33.3,33.3,29.95,WNW,298,3.3,8.1,100,0.00,,OVC017,0.00,VWS V14.01,2013-02-13 08:44:00,
2013-02-13 02:46:00,33.3,33.3,29.95,NW,321,3.3,6.4,100,0.00,,OVC017,0.00,VWS V14.01,2013-02-13 08:46:00,
2013-02-13 02:47:00,33.3,33.3,29.95,North,6,0.0,6.4,100,0.00,,OVC017,0.00,VWS V14.01,2013-02-13 08:47:00,
2013-02-13 02:48:00,33.3,33.3,29.95,NNW,330,2.8,4.7,100,0.00,,OVC017,0.00,VWS V14.01,2013-02-13 08:48:00,
2013-02-13 02:50:00,33.3,33.3,29.95,West,279,6.7,8.1,100,0.00,,OVC017,0.00,VWS V14.01,2013-02-13 08:50:00,
2013-02-13 02:52:00,33.3,33.3,29.95,North,9,3.9,7.6,100,0.00,,OVC017,0.00,VWS V14.01,2013-02-13 08:52:00,
2013-02-13 02:54:00,33.3,33.3,29.95,NNW,345,8.3,8.7,100,0.00,,OVC017,0.00,VWS V14.01,2013-02-13 08:54:00,
2013-02-13 02:56:00,33.3,33.3,29.95,NE,35,3.9,8.7,100,0.00,,OVC017,0.00,VWS V14.01,2013-02-13 08:56:00,
2013-02-13 02:57:00,33.3,33.3,29.95,NW,317,5.0,5.2,100,0.00,,OVC017,0.00,VWS V14.01,2013-02-13 08:57:00,
2013-02-13 02:58:00,33.3,33.3,29.95,NW,321,6.1,6.4,100,0.00,,OVC017,0.00,VWS V14.01,2013-02-13 08:58:00,
2013-02-13 03:00:00,33.3,33.3,29.95,North,357,6.7,10.8,100,0.00,,OVC017,0.00,VWS V14.01,2013-02-13 09:00:00,
2013-02-13 03:02:00,33.3,33.3,29.95,North,353,0.0,7.6,100,0.00,,OVC003,0.00,VWS V14.01,2013-02-13 09:02:00,
2013-02-13 03:04:00,33.3,33.3,29.95,NW,315,6.1,7.6,100,0.00,,OVC017,0.00,VWS V14.01,2013-02-13 09:04:00,
2013-02-13 03:06:00,33.3,33.3,29.95,NW,318,5.0,7.0,100,0.00,,OVC017,0.00,VWS V14.01,2013-02-13 09:06:00,
2013-02-13 03:07:00,33.3,33.3,29.95,NNW,335,4.4,7.6,100,0.00,,OVC003,0.00,VWS V14.01,2013-02-13 09:07:00,
2013-02-13 03:08:00,33.3,33.3,29.95,NNW,333,6.1,7.6,100,0.00,,OVC017,0.00,VWS V14.01,2013-02-13 09:08:00,
2013-02-13 03:10:00,33.3,33.3,29.95,North,353,3.3,7.6,100,0.00,,OVC017,0.00,VWS V14.01,2013-02-13 09:10:00,
2013-02-13 03:12:00,33.3,33.3,29.95,NNW,333,5.0,7.0,100,0.00,,OVC003,0.00,VWS V14.01,2013-02-13 09:12:00,
2013-02-13 03:14:00,33.1,33.1,29.95,NNE,15,3.9,7.0,100,0.00,,OVC017,0.00,VWS V14.01,2013-02-13 09:14:00,
2013-02-13 03:16:00,33.1,33.1,29.95,North,4,3.3,7.0,100,0.00,,OVC017,0.00,VWS V14.01,2013-02-13 09:16:00,
2013-02-13 03:17:00,33.1,33.1,29.95,North,1,2.8,7.0,100,0.00,,OVC003,0.00,VWS V14.01,2013-02-13 09:17:00,
2013-02-13 03:18:00,33.1,33.1,29.95,NW,326,3.3,5.2,100,0.00,,OVC017,0.00,VWS V14.01,2013-02-13 09:18:00,
2013-02-13 03:20:00,33.1,33.1,29.95,NW,319,0.0,5.2,100,0.00,,OVC017,0.00,VWS V14.01,2013-02-13 09:20:00,
2013-02-13 03:22:00,33.1,33.1,29.95,WSW,251,7.2,8.1,100,0.00,,OVC003,0.00,VWS V14.01,2013-02-13 09:22:00,
2013-02-13 03:24:00,33.1,33.1,29.95,NNW,337,2.8,7.6,100,0.00,,OVC017,0.00,VWS V14.01,2013-02-13 09:24:00,
2013-02-13 03:26:00,33.1,33.1,29.95,NNW,340,0.0,4.1,100,0.00,,OVC017,0.00,VWS V14.01,2013-02-13 09:26:00,
2013-02-13 03:27:00,33.1,33.1,29.95,NW,318,3.3,6.4,100,0.00,,OVC003,0.00,VWS V14.01,2013-02-13 09:27:00,
2013-02-13 03:28:00,33.1,33.1,29.95,NW,316,2.8,6.4,100,0.00,,OVC017,0.00,VWS V14.01,2013-02-13 09:28:00,
2013-02-13 03:30:00,33.1,33.1,29.95,NNW,343,0.0,4.7,100,0.00,,OVC017,0.00,VWS V14.01,2013-02-13 09:30:00,
2013-02-13 03:32:00,33.1,33.1,29.95,NNW,344,2.8,4.1,100,0.00,,OVC003,0.00,VWS V14.01,2013-02-13 09:32:00,
2013-02-13 03:34:00,33.1,33.1,29.95,WNW,298,5.0,7.0,100,0.00,,OVC017,0.00,VWS V14.01,2013-02-13 09:34:00,
2013-02-13 03:36:00,33.1,33.1,29.95,NNW,341,3.3,5.2,100,0.00,,OVC017,0.00,VWS V14.01,2013-02-13 09:36:00,
2013-02-13 03:37:00,33.1,33.1,29.95,WNW,299,0.0,7.0,100,0.00,,OVC003,0.00,VWS V14.01,2013-02-13 09:37:00,
2013-02-13 03:38:00,33.1,33.1,29.95,NW,326,0.0,7.0,100,0.00,,OVC017,0.00,VWS V14.01,2013-02-13 09:38:00,
2013-02-13 03:40:00,33.1,33.1,29.95,NNW,333,7.8,8.1,100,0.00,,OVC017,0.00,VWS V14.01,2013-02-13 09:40:00,
2013-02-13 03:42:00,33.1,33.1,29.95,North,0,2.8,7.0,100,0.00,,OVC004,0.00,VWS V14.01,2013-02-13 09:42:00,
2013-02-13 03:44:00,33.1,33.1,29.95,NNW,330,4.4,7.0,100,0.00,,OVC017,0.00,VWS V14.01,2013-02-13 09:44:00,
2013-02-13 03:46:00,33.1,33.1,29.95,NNW,344,6.7,7.0,100,0.00,,OVC017,0.00,VWS V14.01,2013-02-13 09:46:00,
2013-02-13 03:47:00,33.1,33.1,29.95,North,11,2.8,7.0,100,0.00,,OVC004,0.00,VWS V14.01,2013-02-13 09:47:00,
2013-02-13 03:48:00,33.1,33.1,29.95,North,10,0.0,7.0,100,0.00,,OVC017,0.00,VWS V14.01,2013-02-13 09:48:00,
2013-02-13 03:50:00,33.1,33.1,29.95,NNE,21,0.0,2.9,100,0.00,,OVC017,0.00,VWS V14.01,2013-02-13 09:50:00,
2013-02-13 03:52:00,33.1,33.1,29.95,NW,316,0.0,7.6,100,0.00,,OVC004,0.00,VWS V14.01,2013-02-13 09:52:00,
2013-02-13 03:54:00,33.1,33.1,29.95,NW,305,5.0,7.6,100,0.00,,OVC017,0.00,VWS V14.01,2013-02-13 09:54:00,
2013-02-13 03:56:00,33.1,33.1,29.95,North,353,0.0,5.2,100,0.00,,OVC017,0.00,VWS V14.01,2013-02-13 09:56:00,
2013-02-13 03:57:00,33.1,33.1,29.95,NW,304,3.9,5.2,100,0.00,,OVC004,0.00,VWS V14.01,2013-02-13 09:57:00,
2013-02-13 03:58:00,33.1,33.1,29.95,NW,304,0.0,5.2,100,0.00,,OVC017,0.00,VWS V14.01,2013-02-13 09:58:00,
2013-02-13 04:00:00,33.1,33.1,29.95,North,6,4.4,5.2,100,0.00,,OVC017,0.00,VWS V14.01,2013-02-13 10:00:00,
2013-02-13 04:02:00,33.1,33.1,29.95,North,10,2.8,4.1,100,0.00,,OVC004,0.00,VWS V14.01,2013-02-13 10:02:00,
2013-02-13 04:04:00,33.1,33.1,29.95,NNE,32,4.4,4.7,100,0.00,,OVC017,0.00,VWS V14.01,2013-02-13 10:04:00,
2013-02-13 04:06:00,33.1,33.1,29.95,North,350,0.0,4.7,100,0.00,,OVC017,0.00,VWS V14.01,2013-02-13 10:06:00,
2013-02-13 04:07:00,33.1,33.1,29.95,North,0,3.3,4.7,100,0.00,,OVC004,0.00,VWS V14.01,2013-02-13 10:07:00,
2013-02-13 04:08:00,33.1,33.1,29.95,NNE,12,0.0,4.7,100,0.00,,OVC017,0.00,VWS V14.01,2013-02-13 10:08:00,
2013-02-13 04:10:00,33.1,33.1,29.95,NNE,17,0.0,3.5,100,0.00,,OVC017,0.00,VWS V14.01,2013-02-13 10:10:00,
2013-02-13 04:12:00,33.1,33.1,29.95,NNW,331,0.0,4.1,100,0.00,,OVC004,0.00,VWS V14.01,2013-02-13 10:12:00,
2013-02-13 04:14:00,33.1,33.1,29.95,NNW,331,0.0,0.0,100,0.00,,OVC017,0.00,VWS V14.01,2013-02-13 10:14:00,
2013-02-13 04:16:00,33.1,33.1,29.95,NW,326,0.0,4.1,100,0.00,,OVC017,0.00,VWS V14.01,2013-02-13 10:16:00,
2013-02-13 04:17:00,33.1,33.1,29.95,NW,305,0.0,4.1,100,0.00,,OVC004,0.00,VWS V14.01,2013-02-13 10:17:00,
2013-02-13 04:18:00,33.1,33.1,29.95,NW,305,0.0,4.1,100,0.00,,OVC017,0.00,VWS V14.01,2013-02-13 10:18:00,
2013-02-13 04:20:00,33.1,33.1,29.95,NNW,344,0.0,3.5,100,0.00,,OVC017,0.00,VWS V14.01,2013-02-13 10:20:00,
2013-02-13 04:22:00,33.1,33.1,29.95,NNW,344,0.0,0.0,100,0.00,,OVC017,0.00,VWS V14.01,2013-02-13 10:22:00,
2013-02-13 04:23:00,33.1,33.1,29.95,NNW,344,0.0,0.0,100,0.00,,OVC027,0.00,VWS V14.01,2013-02-13 10:23:00,
2013-02-13 04:24:00,33.1,33.1,29.95,NNW,328,0.0,0.0,100,0.00,,OVC017,0.00,VWS V14.01,2013-02-13 10:24:00,
2013-02-13 04:26:00,33.1,33.1,29.95,NW,312,0.0,0.0,100,0.00,,OVC017,0.00,VWS V14.01,2013-02-13 10:26:00,
2013-02-13 04:28:00,33.1,33.1,29.95,NW,313,0.0,0.0,100,0.00,,OVC027,0.00,VWS V14.01,2013-02-13 10:28:00,
2013-02-13 04:30:00,33.1,33.1,29.95,NW,313,0.0,0.0,100,0.00,,OVC017,0.00,VWS V14.01,2013-02-13 10:30:00,
2013-02-13 04:32:00,33.1,33.1,29.95,WNW,302,3.9,4.1,100,0.00,,OVC017,0.00,VWS V14.01,2013-02-13 10:32:00,
2013-02-13 04:33:00,33.1,33.1,29.95,WNW,292,3.9,4.1,100,0.00,,OVC027,0.00,VWS V14.01,2013-02-13 10:33:00,
2013-02-13 04:34:00,33.1,33.1,29.95,WNW,294,3.3,4.1,100,0.00,,OVC017,0.00,VWS V14.01,2013-02-13 10:34:00,
2013-02-13 04:36:00,33.1,33.1,29.95,West,281,3.3,5.2,100,0.00,,OVC017,0.00,VWS V14.01,2013-02-13 10:36:00,
2013-02-13 04:38:00,33.1,33.1,29.95,WNW,292,3.9,6.4,100,0.00,,OVC027,0.00,VWS V14.01,2013-02-13 10:38:00,
2013-02-13 04:40:00,33.1,33.1,29.95,WNW,294,3.9,4.7,100,0.00,,OVC017,0.00,VWS V14.01,2013-02-13 10:40:00,
2013-02-13 04:42:00,33.1,33.1,29.95,WNW,295,0.0,5.2,100,0.00,,OVC017,0.00,VWS V14.01,2013-02-13 10:42:00,
2013-02-13 04:43:00,33.1,33.1,29.95,WNW,295,0.0,3.5,100,0.00,,OVC025,0.00,VWS V14.01,2013-02-13 10:43:00,
2013-02-13 04:44:00,33.1,33.1,29.95,WNW,295,0.0,0.0,100,0.00,,OVC017,0.00,VWS V14.01,2013-02-13 10:44:00,
2013-02-13 04:46:00,33.1,33.1,29.95,WNW,301,4.4,5.2,100,0.00,,OVC017,0.00,VWS V14.01,2013-02-13 10:46:00,
2013-02-13 04:48:00,33.1,33.1,29.95,WNW,300,2.8,5.2,100,0.00,,OVC025,0.00,VWS V14.01,2013-02-13 10:48:00,
2013-02-13 04:50:00,33.1,33.1,29.95,WNW,288,2.8,3.5,100,0.00,,OVC017,0.00,VWS V14.01,2013-02-13 10:50:00,
2013-02-13 04:52:00,33.1,33.1,29.95,West,259,2.8,3.5,100,0.00,,OVC017,0.00,VWS V14.01,2013-02-13 10:52:00,
2013-02-13 04:53:00,33.1,33.1,29.95,West,259,3.3,3.5,100,0.00,,OVC025,0.00,VWS V14.01,2013-02-13 10:53:00,
2013-02-13 04:54:00,33.1,33.1,29.95,West,259,4.4,4.7,100,0.00,,OVC017,0.00,VWS V14.01,2013-02-13 10:54:00,
2013-02-13 04:56:00,33.1,33.1,29.95,West,279,4.4,4.7,100,0.00,,OVC017,0.00,VWS V14.01,2013-02-13 10:56:00,
2013-02-13 04:58:00,33.1,33.1,29.95,WNW,297,3.3,4.1,100,0.00,,OVC025,0.00,VWS V14.01,2013-02-13 10:58:00,
2013-02-13 05:00:00,33.1,33.1,29.95,WNW,299,0.0,3.5,100,0.00,,OVC017,0.00,VWS V14.01,2013-02-13 11:00:00,
2013-02-13 05:02:00,33.1,33.1,29.95,WNW,291,0.0,0.0,100,0.00,,OVC017,0.00,VWS V14.01,2013-02-13 11:02:00,
2013-02-13 05:03:00,33.1,33.1,29.95,WNW,291,0.0,0.0,100,0.00,,OVC021,0.00,VWS V14.01,2013-02-13 11:03:00,
2013-02-13 05:04:00,33.1,33.1,29.95,WNW,289,0.0,0.0,100,0.00,,OVC017,0.00,VWS V14.01,2013-02-13 11:04:00,
2013-02-13 05:06:00,33.1,33.1,29.95,WNW,289,0.0,0.0,100,0.00,,OVC017,0.00,VWS V14.01,2013-02-13 11:06:00,
2013-02-13 05:08:00,33.1,33.1,29.95,WNW,287,5.5,7.0,100,0.00,,OVC021,0.00,VWS V14.01,2013-02-13 11:08:00,
2013-02-13 05:10:00,33.1,33.1,29.95,WNW,282,6.1,7.0,100,0.00,,OVC017,0.00,VWS V14.01,2013-02-13 11:10:00,
2013-02-13 05:12:00,33.1,33.1,29.95,West,278,3.9,6.4,100,0.00,,OVC017,0.00,VWS V14.01,2013-02-13 11:12:00,
2013-02-13 05:13:00,33.1,33.1,29.95,West,279,4.4,5.2,100,0.00,,OVC021,0.00,VWS V14.01,2013-02-13 11:13:00,
2013-02-13 05:14:00,33.1,33.1,29.95,West,281,4.4,5.2,100,0.00,,OVC017,0.00,VWS V14.01,2013-02-13 11:14:00,
2013-02-13 05:16:00,33.1,33.1,29.95,WNW,287,7.8,9.3,100,0.00,,OVC017,0.00,VWS V14.01,2013-02-13 11:16:00,
2013-02-13 05:18:00,33.3,33.3,29.95,NW,318,9.4,13.1,100,0.00,,OVC021,0.00,VWS V14.01,2013-02-13 11:18:00,
2013-02-13 05:20:00,33.3,33.3,29.95,WNW,290,9.4,10.8,100,0.00,,OVC017,0.00,VWS V14.01,2013-02-13 11:20:00,
2013-02-13 05:22:00,33.3,33.3,29.95,WNW,298,9.4,10.5,100,0.00,,OVC017,0.00,VWS V14.01,2013-02-13 11:22:00,
2013-02-13 05:23:00,33.3,33.3,29.95,West,281,7.8,10.5,100,0.00,,OVC041,0.00,VWS V14.01,2013-02-13 11:23:00,
2013-02-13 05:24:00,33.3,33.3,29.95,West,279,10.3,10.8,100,0.00,,OVC017,0.00,VWS V14.01,2013-02-13 11:24:00,
2013-02-13 05:26:00,33.3,33.3,29.98,WSW,256,7.2,10.8,100,0.00,,OVC017,0.00,VWS V14.01,2013-02-13 11:26:00,
2013-02-13 05:28:00,33.3,33.3,29.98,NW,308,6.7,10.5,100,0.00,,OVC041,0.00,VWS V14.01,2013-02-13 11:28:00,
2013-02-13 05:30:00,33.3,33.3,29.98,West,268,7.8,9.9,100,0.00,,OVC017,0.00,VWS V14.01,2013-02-13 11:30:00,
2013-02-13 05:32:00,33.3,33.3,29.98,West,276,7.8,8.7,100,0.00,,OVC017,0.00,VWS V14.01,2013-02-13 11:32:00,
2013-02-13 05:33:00,33.3,33.3,29.98,West,281,6.1,8.7,100,0.00,,OVC041,0.00,VWS V14.01,2013-02-13 11:33:00,
2013-02-13 05:34:00,33.3,33.3,29.98,WNW,288,6.7,8.1,100,0.00,,OVC017,0.00,VWS V14.01,2013-02-13 11:34:00,
2013-02-13 05:36:00,33.3,33.3,29.98,WNW,294,10.0,10.8,100,0.00,,OVC017,0.00,VWS V14.01,2013-02-13 11:36:00,
2013-02-13 05:38:00,33.3,33.3,29.98,WNW,288,10.8,11.3,100,0.00,,OVC041,0.00,VWS V14.01,2013-02-13 11:38:00,
2013-02-13 05:40:00,33.3,33.3,29.98,NW,305,6.1,11.3,100,0.00,,OVC017,0.00,VWS V14.01,2013-02-13 11:40:00,
2013-02-13 05:42:00,33.3,33.3,29.98,West,279,7.2,8.7,100,0.00,,OVC017,0.00,VWS V14.01,2013-02-13 11:42:00,
2013-02-13 05:43:00,33.3,33.3,29.98,WNW,303,9.4,11.3,100,0.00,,OVC041,0.00,VWS V14.01,2013-02-13 11:43:00,
2013-02-13 05:44:00,33.3,33.3,29.98,NW,306,8.3,11.3,100,0.00,,OVC017,0.00,VWS V14.01,2013-02-13 11:44:00,
2013-02-13 05:46:00,33.3,33.3,29.98,WNW,286,6.7,9.9,100,0.00,,OVC017,0.00,VWS V14.01,2013-02-13 11:46:00,
2013-02-13 05:48:00,33.3,33.3,29.98,WNW,293,7.2,8.1,100,0.00,,OVC041,0.00,VWS V14.01,2013-02-13 11:48:00,
2013-02-13 05:50:00,33.3,33.3,29.98,WNW,289,3.3,8.7,100,0.00,,OVC017,0.00,VWS V14.01,2013-02-13 11:50:00,
2013-02-13 05:52:00,33.3,33.3,29.98,WNW,282,7.2,7.6,100,0.00,,OVC017,0.00,VWS V14.01,2013-02-13 11:52:00,
2013-02-13 05:53:00,33.3,33.3,29.98,West,276,6.7,7.6,100,0.00,,OVC041,0.00,VWS V14.01,2013-02-13 11:53:00,
2013-02-13 05:54:00,33.3,33.3,29.98,WNW,285,7.8,8.1,100,0.00,,OVC017,0.00,VWS V14.01,2013-02-13 11:54:00,
2013-02-13 05:56:00,33.3,33.3,29.98,WNW,287,4.4,8.1,100,0.00,,OVC017,0.00,VWS V14.01,2013-02-13 11:56:00,
2013-02-13 05:58:00,33.3,33.3,29.98,WNW,301,6.1,7.6,100,0.00,,OVC041,0.00,VWS V14.01,2013-02-13 11:58:00,
2013-02-13 06:00:00,33.3,33.3,29.98,NW,306,6.1,6.4,100,0.00,,OVC017,0.00,VWS V14.01,2013-02-13 12:00:00,
2013-02-13 06:02:00,33.3,33.3,29.98,WNW,287,5.0,7.0,100,0.00,,OVC017,0.00,VWS V14.01,2013-02-13 12:02:00,
2013-02-13 06:03:00,33.3,33.3,29.98,WSW,251,4.4,5.2,100,0.00,,OVC002,0.00,VWS V14.01,2013-02-13 12:03:00,
2013-02-13 06:04:00,33.3,33.3,29.98,West,268,3.3,5.2,100,0.00,,OVC017,0.00,VWS V14.01,2013-02-13 12:04:00,
2013-02-13 06:06:00,33.3,33.3,29.98,West,261,5.0,6.4,100,0.00,,OVC017,0.00,VWS V14.01,2013-02-13 12:06:00,
2013-02-13 06:08:00,33.3,33.3,29.98,WNW,286,6.7,7.0,100,0.00,,OVC002,0.00,VWS V14.01,2013-02-13 12:08:00,
2013-02-13 06:10:00,33.1,33.1,29.98,West,274,4.4,7.0,100,0.00,,OVC017,0.00,VWS V14.01,2013-02-13 12:10:00,
2013-02-13 06:12:00,33.1,33.1,29.98,WNW,289,8.9,9.3,100,0.00,,OVC017,0.00,VWS V14.01,2013-02-13 12:12:00,
2013-02-13 06:13:00,33.1,33.1,29.98,WNW,293,7.8,10.5,100,0.00,,OVC002,0.00,VWS V14.01,2013-02-13 12:13:00,
2013-02-13 06:14:00,33.1,33.1,29.98,WNW,293,7.8,10.5,100,0.00,,OVC017,0.00,VWS V14.01,2013-02-13 12:14:00,
2013-02-13 06:16:00,33.1,33.1,29.98,West,275,3.3,8.1,100,0.00,,OVC017,0.00,VWS V14.01,2013-02-13 12:16:00,
2013-02-13 06:18:00,33.1,33.1,29.98,WNW,283,6.7,7.6,100,0.00,,OVC002,0.00,VWS V14.01,2013-02-13 12:18:00,
2013-02-13 06:20:00,33.1,33.1,29.98,WSW,251,6.7,7.6,100,0.00,,OVC017,0.00,VWS V14.01,2013-02-13 12:20:00,
2013-02-13 06:22:00,33.1,33.1,29.98,WSW,250,5.0,7.6,100,0.00,,OVC017,0.00,VWS V14.01,2013-02-13 12:22:00,
2013-02-13 06:23:00,33.1,33.1,29.98,WSW,255,6.1,7.6,100,0.00,,OVC002,0.00,VWS V14.01,2013-02-13 12:23:00,
2013-02-13 06:24:00,33.1,33.1,29.98,West,280,6.7,7.6,100,0.00,,OVC017,0.00,VWS V14.01,2013-02-13 12:24:00,
2013-02-13 06:26:00,33.1,33.1,29.98,WNW,285,9.4,9.9,100,0.00,,OVC017,0.00,VWS V14.01,2013-02-13 12:26:00,
2013-02-13 06:28:00,33.1,33.1,29.98,WNW,283,6.7,8.7,100,0.00,,OVC002,0.00,VWS V14.01,2013-02-13 12:28:00,
2013-02-13 06:30:00,33.1,33.1,29.98,WNW,284,6.7,7.0,100,0.00,,OVC017,0.00,VWS V14.01,2013-02-13 12:30:00,
2013-02-13 06:32:00,33.1,33.1,29.98,WNW,286,7.8,9.9,100,0.00,,OVC017,0.00,VWS V14.01,2013-02-13 12:32:00,
2013-02-13 06:33:00,33.1,33.1,29.98,West,260,7.2,9.9,100,0.00,,OVC002,0.00,VWS V14.01,2013-02-13 12:33:00,
2013-02-13 06:34:00,33.1,33.1,29.98,WNW,282,8.3,9.9,100,0.00,,OVC017,0.00,VWS V14.01,2013-02-13 12:34:00,
2013-02-13 06:36:00,33.1,33.1,29.98,WNW,287,7.8,10.8,100,0.00,,OVC017,0.00,VWS V14.01,2013-02-13 12:36:00,
2013-02-13 06:38:00,33.1,33.1,29.98,WNW,288,9.4,10.8,100,0.00,,OVC002,0.00,VWS V14.01,2013-02-13 12:38:00,
2013-02-13 06:40:00,33.1,33.1,29.98,West,279,6.7,10.8,100,0.00,,OVC017,0.00,VWS V14.01,2013-02-13 12:40:00,
2013-02-13 06:42:00,33.1,33.1,29.98,West,274,10.3,10.8,100,0.00,,OVC017,0.00,VWS V14.01,2013-02-13 12:42:00,
2013-02-13 06:43:00,33.1,33.1,29.98,West,276,6.7,10.8,100,0.00,,OVC002,0.00,VWS V14.01,2013-02-13 12:43:00,
2013-02-13 06:44:00,33.1,33.1,29.98,West,276,6.7,10.8,100,0.00,,OVC017,0.00,VWS V14.01,2013-02-13 12:44:00,
2013-02-13 06:46:00,33.1,33.1,29.98,West,265,6.7,8.1,100,0.00,,OVC017,0.00,VWS V14.01,2013-02-13 12:46:00,
2013-02-13 06:48:00,33.1,33.1,29.98,WNW,286,10.8,11.3,100,0.00,,OVC002,0.00,VWS V14.01,2013-02-13 12:48:00,
2013-02-13 06:50:00,33.1,33.1,29.98,WSW,253,7.2,11.3,100,0.00,,OVC017,0.00,VWS V14.01,2013-02-13 12:50:00,
2013-02-13 06:52:00,33.1,33.1,29.98,WNW,285,10.0,12.5,100,0.00,,OVC017,0.00,VWS V14.01,2013-02-13 12:52:00,
2013-02-13 06:53:00,33.1,33.1,29.98,West,279,7.2,11.3,100,0.00,,OVC002,0.00,VWS V14.01,2013-02-13 12:53:00,
2013-02-13 06:54:00,33.1,33.1,29.98,West,279,7.2,11.3,100,0.00,,OVC017,0.00,VWS V14.01,2013-02-13 12:54:00,
2013-02-13 06:56:00,33.1,33.1,29.98,WSW,243,6.7,10.5,100,0.00,,OVC017,0.00,VWS V14.01,2013-02-13 12:56:00,
2013-02-13 06:58:00,33.1,33.1,29.98,WSW,256,5.0,8.1,100,0.00,,OVC002,0.00,VWS V14.01,2013-02-13 12:58:00,
2013-02-13 07:00:00,33.1,33.1,29.98,WNW,291,9.4,9.9,100,0.00,,OVC017,0.00,VWS V14.01,2013-02-13 13:00:00,
2013-02-13 07:02:00,33.1,33.1,29.98,West,265,5.0,10.5,100,0.00,,OVC017,0.00,VWS V14.01,2013-02-13 13:02:00,
2013-02-13 07:03:00,33.1,33.1,29.98,WNW,288,10.8,11.3,100,0.00,,OVC002,0.00,VWS V14.01,2013-02-13 13:03:00,
2013-02-13 07:04:00,33.1,33.1,29.98,WNW,288,10.8,11.3,100,0.00,,OVC017,0.00,VWS V14.01,2013-02-13 13:04:00,
2013-02-13 07:06:00,33.1,33.1,29.98,WNW,294,7.2,12.5,100,0.00,,OVC017,0.00,VWS V14.01,2013-02-13 13:06:00,
2013-02-13 07:08:00,33.1,33.1,29.98,NW,305,8.3,9.9,100,0.00,,OVC017,0.00,VWS V14.01,2013-02-13 13:08:00,
2013-02-13 07:09:00,33.1,33.1,29.98,West,263,7.2,9.9,100,0.00,,OVC002,0.00,VWS V14.01,2013-02-13 13:09:00,
2013-02-13 07:10:00,33.1,33.1,30.00,West,273,8.3,9.9,100,0.00,,OVC017,0.00,VWS V14.01,2013-02-13 13:10:00,
2013-02-13 07:12:00,33.1,33.1,30.00,West,273,9.4,11.3,100,0.00,,OVC017,0.00,VWS V14.01,2013-02-13 13:12:00,
2013-02-13 07:13:00,33.1,33.1,30.01,West,279,9.4,10.5,100,0.00,,OVC002,0.00,VWS V14.01,2013-02-13 13:13:00,
2013-02-13 07:14:00,33.1,33.1,30.00,West,279,9.4,10.5,100,0.00,,OVC017,0.00,VWS V14.01,2013-02-13 13:14:00,
2013-02-13 07:16:00,33.1,33.1,30.00,West,275,10.0,10.5,100,0.00,,OVC017,0.00,VWS V14.01,2013-02-13 13:16:00,
2013-02-13 07:18:00,33.1,33.1,30.00,West,265,7.8,10.8,100,0.00,,OVC017,0.00,VWS V14.01,2013-02-13 13:18:00,
2013-02-13 07:19:00,33.1,33.1,30.01,WNW,286,8.3,10.8,100,0.00,,OVC002,0.00,VWS V14.01,2013-02-13 13:19:00,
2013-02-13 07:20:00,33.1,33.1,30.00,WNW,290,9.4,10.5,100,0.00,,OVC017,0.00,VWS V14.01,2013-02-13 13:20:00,
2013-02-13 07:22:00,33.1,33.1,30.00,West,274,7.2,10.5,100,0.00,,OVC017,0.00,VWS V14.01,2013-02-13 13:22:00,
2013-02-13 07:24:00,33.1,33.1,30.01,West,266,10.0,10.5,100,0.00,,OVC002,0.00,VWS V14.01,2013-02-13 13:24:00,
2013-02-13 07:26:00,33.1,33.1,30.00,WNW,294,7.8,10.5,100,0.00,,OVC017,0.00,VWS V14.01,2013-02-13 13:26:00,
2013-02-13 07:28:00,33.1,33.1,30.00,West,270,6.7,9.9,100,0.00,,OVC017,0.00,VWS V14.01,2013-02-13 13:28:00,
2013-02-13 07:29:00,33.1,33.1,30.01,West,265,8.9,9.9,100,0.00,,OVC002,0.00,VWS V14.01,2013-02-13 13:29:00,
2013-02-13 07:30:00,33.1,33.1,30.00,West,281,6.1,9.3,100,0.00,,OVC017,0.00,VWS V14.01,2013-02-13 13:30:00,
2013-02-13 07:32:00,33.1,33.1,30.00,West,279,7.8,9.3,100,0.00,,OVC017,0.00,VWS V14.01,2013-02-13 13:32:00,
2013-02-13 07:34:00,33.1,33.1,30.01,West,263,6.7,8.1,100,0.00,,OVC002,0.00,VWS V14.01,2013-02-13 13:34:00,
2013-02-13 07:36:00,33.1,33.1,30.00,WSW,249,6.1,9.9,100,0.00,,OVC017,0.00,VWS V14.01,2013-02-13 13:36:00,
2013-02-13 07:38:00,33.1,33.1,30.00,WNW,282,7.2,9.3,100,0.00,,OVC017,0.00,VWS V14.01,2013-02-13 13:38:00,
2013-02-13 07:39:00,33.1,33.1,30.01,WNW,289,9.4,9.9,100,0.00,,OVC002,0.00,VWS V14.01,2013-02-13 13:39:00,
2013-02-13 07:40:00,33.1,33.1,30.00,West,274,7.8,9.9,100,0.00,,OVC017,0.00,VWS V14.01,2013-02-13 13:40:00,
2013-02-13 07:42:00,33.1,33.1,30.00,West,271,5.0,8.1,100,0.00,,OVC017,0.00,VWS V14.01,2013-02-13 13:42:00,
2013-02-13 07:44:00,33.1,33.1,30.01,WSW,258,4.4,7.0,100,0.00,,OVC002,0.00,VWS V14.01,2013-02-13 13:44:00,
2013-02-13 07:46:00,33.1,33.1,30.00,SW,233,2.8,7.0,100,0.00,,OVC017,0.00,VWS V14.01,2013-02-13 13:46:00,
2013-02-13 07:48:00,33.1,33.1,30.00,SW,214,2.8,4.1,100,0.00,,OVC017,0.00,VWS V14.01,2013-02-13 13:48:00,
2013-02-13 07:49:00,33.1,33.1,30.01,WSW,249,0.0,4.1,100,0.00,,OVC002,0.00,VWS V14.01,2013-02-13 13:49:00,
2013-02-13 07:50:00,33.3,33.3,30.00,SW,233,3.9,4.1,100,0.00,,OVC017,0.00,VWS V14.01,2013-02-13 13:50:00,
2013-02-13 07:52:00,33.3,33.3,30.00,WSW,258,7.2,7.6,100,0.00,,OVC017,0.00,VWS V14.01,2013-02-13 13:52:00,
2013-02-13 07:54:00,33.3,33.3,30.01,WSW,252,6.1,8.7,100,0.00,,OVC002,0.00,VWS V14.01,2013-02-13 13:54:00,
2013-02-13 07:56:00,33.3,33.3,30.00,WSW,240,5.0,7.0,100,0.00,,OVC017,0.00,VWS V14.01,2013-02-13 13:56:00,
2013-02-13 07:58:00,33.3,33.3,30.00,WSW,242,6.7,7.0,100,0.00,,OVC017,0.00,VWS V14.01,2013-02-13 13:58:00,
2013-02-13 07:59:00,33.3,33.3,30.01,WSW,242,5.0,7.0,100,0.00,,OVC002,0.00,VWS V14.01,2013-02-13 13:59:00,
2013-02-13 08:00:00,33.4,33.4,30.00,WSW,246,6.7,7.0,100,0.00,,OVC017,0.00,VWS V14.01,2013-02-13 14:00:00,
2013-02-13 08:02:00,33.4,33.4,30.00,WSW,240,10.8,11.3,100,0.00,,OVC017,0.00,VWS V14.01,2013-02-13 14:02:00,
2013-02-13 08:04:00,33.4,33.4,30.01,WSW,248,7.2,10.5,100,0.00,,OVC002,0.00,VWS V14.01,2013-02-13 14:04:00,
2013-02-13 08:06:00,33.4,33.4,30.00,WNW,296,10.3,11.3,100,0.00,,OVC017,0.00,VWS V14.01,2013-02-13 14:06:00,
2013-02-13 08:08:00,33.6,33.6,30.00,WSW,257,9.4,10.8,100,0.00,,OVC017,0.00,VWS V14.01,2013-02-13 14:08:00,
2013-02-13 08:09:00,33.6,33.6,30.01,WSW,237,6.7,9.9,100,0.00,,OVC002,0.00,VWS V14.01,2013-02-13 14:09:00,
2013-02-13 08:10:00,33.6,33.6,30.00,SW,223,7.2,8.1,100,0.00,,OVC017,0.00,VWS V14.01,2013-02-13 14:10:00,
2013-02-13 08:12:00,33.6,33.6,30.00,West,259,7.8,8.1,100,0.00,,OVC017,0.00,VWS V14.01,2013-02-13 14:12:00,
2013-02-13 08:14:00,33.6,33.6,30.01,WSW,255,7.8,11.3,100,0.00,,OVC002,0.00,VWS V14.01,2013-02-13 14:14:00,
2013-02-13 08:16:00,33.8,33.8,30.00,WSW,244,7.8,10.5,100,0.00,,OVC017,0.00,VWS V14.01,2013-02-13 14:16:00,
2013-02-13 08:18:00,33.8,33.8,30.00,WNW,282,6.7,8.1,100,0.00,,OVC017,0.00,VWS V14.01,2013-02-13 14:18:00,
2013-02-13 08:19:00,33.8,33.8,30.01,WSW,252,7.2,8.1,100,0.00,,OVC002,0.00,VWS V14.01,2013-02-13 14:19:00,
2013-02-13 08:20:00,33.8,33.8,30.00,West,268,8.3,8.7,100,0.00,,OVC017,0.00,VWS V14.01,2013-02-13 14:20:00,
2013-02-13 08:22:00,33.8,33.8,30.00,WSW,256,7.2,13.1,100,0.00,,OVC017,0.00,VWS V14.01,2013-02-13 14:22:00,
2013-02-13 08:24:00,33.8,33.8,30.01,SW,234,5.0,10.5,100,0.00,,OVC002,0.00,VWS V14.01,2013-02-13 14:24:00,
2013-02-13 08:26:00,33.8,33.8,30.00,WSW,238,6.7,8.7,100,0.00,,OVC017,0.00,VWS V14.01,2013-02-13 14:26:00,
2013-02-13 08:28:00,33.8,33.8,30.00,WSW,240,7.2,8.1,100,0.00,,OVC017,0.00,VWS V14.01,2013-02-13 14:28:00,
2013-02-13 08:29:00,33.8,33.8,30.01,WSW,243,7.8,10.8,100,0.00,,OVC002,0.00,VWS V14.01,2013-02-13 14:29:00,
2013-02-13 08:30:00,33.8,33.8,30.00,West,277,7.8,10.8,100,0.00,,OVC017,0.00,VWS V14.01,2013-02-13 14:30:00,
2013-02-13 08:32:00,34.0,34.0,30.00,WSW,244,7.8,8.1,100,0.00,,OVC017,0.00,VWS V14.01,2013-02-13 14:32:00,
2013-02-13 08:34:00,34.0,34.0,30.01,West,263,9.4,10.5,100,0.00,,OVC002,0.00,VWS V14.01,2013-02-13 14:34:00,
2013-02-13 08:36:00,34.0,34.0,30.00,WSW,253,6.7,10.5,100,0.00,,OVC017,0.00,VWS V14.01,2013-02-13 14:36:00,
2013-02-13 08:38:00,34.2,34.2,30.00,WSW,254,6.7,8.1,100,0.00,,OVC017,0.00,VWS V14.01,2013-02-13 14:38:00,
2013-02-13 08:39:00,34.3,34.3,30.01,SW,219,10.3,11.3,100,0.00,,OVC002,0.00,VWS V14.01,2013-02-13 14:39:00,
2013-02-13 08:40:00,34.3,34.3,30.00,SW,222,7.8,11.3,100,0.00,,OVC017,0.00,VWS V14.01,2013-02-13 14:40:00,
2013-02-13 08:42:00,34.3,34.3,30.00,WSW,252,10.3,13.1,100,0.00,,OVC017,0.00,VWS V14.01,2013-02-13 14:42:00,
2013-02-13 08:44:00,34.3,34.3,30.01,West,259,8.3,11.3,100,0.00,,OVC004,0.00,VWS V14.01,2013-02-13 14:44:00,
2013-02-13 08:46:00,34.3,34.3,30.00,WSW,254,5.0,8.7,100,0.00,,OVC017,0.00,VWS V14.01,2013-02-13 14:46:00,
2013-02-13 08:48:00,34.5,34.5,30.00,SW,233,5.5,8.1,100,0.00,,OVC017,0.00,VWS V14.01,2013-02-13 14:48:00,
2013-02-13 08:49:00,34.5,34.5,30.01,SW,229,10.0,10.5,100,0.00,,OVC004,0.00,VWS V14.01,2013-02-13 14:49:00,
2013-02-13 08:50:00,34.5,34.5,30.00,WSW,238,9.4,10.8,100,0.00,,OVC017,0.00,VWS V14.01,2013-02-13 14:50:00,
2013-02-13 08:52:00,34.5,34.5,30.00,SW,222,7.2,9.9,100,0.00,,OVC017,0.00,VWS V14.01,2013-02-13 14:52:00,
2013-02-13 08:54:00,34.7,34.7,30.01,WSW,248,6.7,11.9,100,0.04,,OVC004,0.04,VWS V14.01,2013-02-13 14:54:00,
2013-02-13 08:56:00,34.7,34.7,30.00,WSW,243,10.3,10.8,100,0.04,,OVC017,0.04,VWS V14.01,2013-02-13 14:56:00,
2013-02-13 08:58:00,34.7,34.7,30.00,SW,227,9.4,10.8,100,0.04,,OVC017,0.04,VWS V14.01,2013-02-13 14:58:00,
2013-02-13 08:59:00,34.7,34.7,30.01,SW,233,10.0,12.5,100,0.04,,OVC004,0.04,VWS V14.01,2013-02-13 14:59:00,
2013-02-13 09:00:00,34.7,34.7,30.00,WSW,249,10.3,12.5,100,0.04,,OVC017,0.04,VWS V14.01,2013-02-13 15:00:00,
2013-02-13 09:02:00,34.7,34.7,30.00,SW,217,7.8,11.3,100,0.04,,OVC017,0.04,VWS V14.01,2013-02-13 15:02:00,
2013-02-13 09:04:00,34.9,34.9,30.01,SW,234,10.3,11.9,100,0.04,,OVC004,0.04,VWS V14.01,2013-02-13 15:04:00,
2013-02-13 09:06:00,34.9,34.9,30.00,WSW,252,9.4,13.1,100,0.04,,OVC017,0.04,VWS V14.01,2013-02-13 15:06:00,
2013-02-13 09:08:00,35.1,35.1,30.00,WSW,257,7.8,12.5,100,0.04,,OVC017,0.04,VWS V14.01,2013-02-13 15:08:00,
2013-02-13 09:09:00,35.1,35.1,30.01,SW,234,7.2,10.8,100,0.04,,OVC004,0.04,VWS V14.01,2013-02-13 15:09:00,
2013-02-13 09:10:00,35.1,35.1,30.00,WSW,239,6.7,10.8,100,0.04,,OVC017,0.04,VWS V14.01,2013-02-13 15:10:00,
2013-02-13 09:12:00,35.2,35.2,30.00,WSW,244,9.4,10.5,100,0.04,,OVC017,0.04,VWS V14.01,2013-02-13 15:12:00,
2013-02-13 09:14:00,35.4,35.4,30.01,WSW,240,10.3,10.8,100,0.04,,OVC004,0.04,VWS V14.01,2013-02-13 15:14:00,
2013-02-13 09:16:00,35.6,35.6,30.00,WSW,246,7.8,13.1,100,0.04,,OVC017,0.04,VWS V14.01,2013-02-13 15:16:00,
2013-02-13 09:18:00,35.8,35.8,30.00,SW,219,10.8,13.1,100,0.04,,OVC017,0.04,VWS V14.01,2013-02-13 15:18:00,
2013-02-13 09:19:00,35.8,35.8,30.01,SW,232,10.8,14.2,100,0.04,,OVC004,0.04,VWS V14.01,2013-02-13 15:19:00,
2013-02-13 09:20:00,35.8,35.8,30.00,SW,218,12.5,14.2,100,0.04,,OVC017,0.04,VWS V14.01,2013-02-13 15:20:00,
2013-02-13 09:22:00,35.8,35.8,30.00,WSW,237,10.8,16.0,100,0.04,,OVC017,0.04,VWS V14.01,2013-02-13 15:22:00,
2013-02-13 09:24:00,35.8,35.8,30.01,SSW,212,12.5,13.1,100,0.04,,OVC005,0.04,VWS V14.01,2013-02-13 15:24:00,
2013-02-13 09:26:00,35.8,35.8,30.00,WSW,252,10.0,14.2,100,0.04,,OVC017,0.04,VWS V14.01,2013-02-13 15:26:00,
2013-02-13 09:28:00,35.6,35.6,30.00,West,267,10.0,13.7,100,0.04,,OVC017,0.04,VWS V14.01,2013-02-13 15:28:00,
2013-02-13 09:29:00,35.6,35.6,30.01,WSW,255,10.3,13.7,100,0.04,,OVC005,0.04,VWS V14.01,2013-02-13 15:29:00,
2013-02-13 09:30:00,35.6,35.6,30.00,WSW,238,10.8,13.7,100,0.04,,OVC017,0.04,VWS V14.01,2013-02-13 15:30:00,
2013-02-13 09:32:00,35.6,35.6,30.00,WSW,250,7.8,13.1,100,0.04,,OVC017,0.04,VWS V14.01,2013-02-13 15:32:00,
2013-02-13 09:34:00,35.6,35.6,30.01,WSW,252,10.3,13.1,100,0.04,,OVC005,0.04,VWS V14.01,2013-02-13 15:34:00,
2013-02-13 09:36:00,35.8,35.8,30.00,SSW,201,11.9,13.1,100,0.04,,OVC017,0.04,VWS V14.01,2013-02-13 15:36:00,
2013-02-13 09:38:00,36.1,36.1,30.00,SW,219,7.8,16.0,100,0.04,,OVC017,0.04,VWS V14.01,2013-02-13 15:38:00,
2013-02-13 09:40:00,36.3,36.3,30.01,SW,232,10.3,14.2,100,0.04,,OVC005,0.04,VWS V14.01,2013-02-13 15:40:00,
2013-02-13 09:42:00,36.5,36.5,30.00,SW,214,10.3,13.1,100,0.04,,OVC017,0.04,VWS V14.01,2013-02-13 15:42:00,
2013-02-13 09:44:00,36.7,36.7,30.00,SW,233,13.6,14.2,100,0.04,,OVC017,0.04,VWS V14.01,2013-02-13 15:44:00,
2013-02-13 09:45:00,36.7,36.7,30.01,SW,214,8.9,14.2,100,0.04,,OVC006,0.04,VWS V14.01,2013-02-13 15:45:00,
2013-02-13 09:46:00,36.9,36.9,30.00,SW,218,9.4,14.2,100,0.04,,OVC017,0.04,VWS V14.01,2013-02-13 15:46:00,
2013-02-13 09:48:00,36.9,36.9,30.00,WSW,251,10.8,11.3,100,0.04,,OVC017,0.04,VWS V14.01,2013-02-13 15:48:00,
2013-02-13 09:50:00,36.9,36.9,30.01,WSW,254,8.9,11.3,100,0.04,,OVC006,0.04,VWS V14.01,2013-02-13 15:50:00,
2013-02-13 09:52:00,36.9,36.9,30.00,West,262,9.4,10.5,100,0.04,,OVC017,0.04,VWS V14.01,2013-02-13 15:52:00,
2013-02-13 09:54:00,37.0,37.0,30.00,SW,231,15.3,16.0,100,0.04,,OVC017,0.04,VWS V14.01,2013-02-13 15:54:00,
2013-02-13 09:55:00,37.0,37.0,30.01,WSW,248,10.8,16.0,100,0.00,,OVC006,0.04,VWS V14.01,2013-02-13 15:55:00,
2013-02-13 09:56:00,37.2,37.2,30.00,SW,230,10.8,16.0,100,0.00,,OVC017,0.04,VWS V14.01,2013-02-13 15:56:00,
2013-02-13 09:58:00,37.4,37.4,30.00,WSW,243,9.4,11.3,100,0.00,,OVC017,0.04,VWS V14.01,2013-02-13 15:58:00,
2013-02-13 10:00:00,37.4,37.4,30.01,WSW,244,9.4,12.5,100,0.00,,OVC006,0.04,VWS V14.01,2013-02-13 16:00:00,
2013-02-13 10:02:00,37.4,37.4,30.00,SW,228,13.6,14.2,100,0.00,,OVC017,0.04,VWS V14.01,2013-02-13 16:02:00,
2013-02-13 10:04:00,37.4,37.4,30.00,SW,225,12.5,14.2,100,0.00,,OVC017,0.04,VWS V14.01,2013-02-13 16:04:00,
2013-02-13 10:05:00,37.4,37.4,30.01,WSW,256,15.3,16.0,100,0.00,,OVC012,0.04,VWS V14.01,2013-02-13 16:05:00,
2013-02-13 10:06:00,37.2,37.2,30.00,West,276,10.8,16.0,100,0.00,,OVC017,0.04,VWS V14.01,2013-02-13 16:06:00,
2013-02-13 10:08:00,37.4,37.4,30.00,WSW,238,9.4,14.2,100,0.00,,OVC017,0.04,VWS V14.01,2013-02-13 16:08:00,
2013-02-13 10:10:00,37.6,37.6,30.01,WSW,242,14.7,15.4,100,0.00,,OVC012,0.04,VWS V14.01,2013-02-13 16:10:00,
2013-02-13 10:12:00,37.6,37.6,30.00,WSW,258,10.3,15.4,100,0.00,,OVC017,0.04,VWS V14.01,2013-02-13 16:12:00,
2013-02-13 10:14:00,37.6,37.6,30.00,SW,232,13.6,18.9,100,0.00,,OVC017,0.04,VWS V14.01,2013-02-13 16:14:00,
2013-02-13 10:15:00,37.6,37.6,30.01,SW,234,9.4,18.9,100,0.00,,OVC012,0.04,VWS V14.01,2013-02-13 16:15:00,
2013-02-13 10:16:00,37.6,37.6,30.00,WSW,249,10.3,15.4,100,0.00,,OVC017,0.04,VWS V14.01,2013-02-13 16:16:00,
2013-02-13 10:18:00,37.6,37.6,30.00,WSW,250,10.3,16.0,100,0.04,,OVC017,0.08,VWS V14.01,2013-02-13 16:18:00,
2013-02-13 10:20:00,37.6,37.6,30.01,West,266,10.8,14.2,100,0.04,,OVC010,0.08,VWS V14.01,2013-02-13 16:20:00,
2013-02-13 10:22:00,37.6,37.6,30.00,West,259,16.9,18.3,100,0.04,,OVC017,0.08,VWS V14.01,2013-02-13 16:22:00,
2013-02-13 10:24:00,37.6,37.6,30.00,WSW,251,10.3,17.7,100,0.04,,OVC017,0.08,VWS V14.01,2013-02-13 16:24:00,
2013-02-13 10:25:00,37.6,37.6,30.01,SW,229,10.8,11.3,100,0.04,,OVC010,0.08,VWS V14.01,2013-02-13 16:25:00,
2013-02-13 10:26:00,37.8,37.8,30.00,WSW,248,10.3,11.3,100,0.04,,OVC017,0.08,VWS V14.01,2013-02-13 16:26:00,
2013-02-13 10:28:00,37.9,37.9,30.00,SW,222,13.6,17.2,100,0.04,,OVC017,0.08,VWS V14.01,2013-02-13 16:28:00,
2013-02-13 10:30:00,37.9,37.9,30.01,SW,233,13.6,17.2,100,0.04,,OVC010,0.08,VWS V14.01,2013-02-13 16:30:00,
2013-02-13 10:32:00,38.1,38.1,30.00,WSW,248,14.1,17.2,100,0.04,,OVC017,0.08,VWS V14.01,2013-02-13 16:32:00,
2013-02-13 10:34:00,38.1,38.1,30.00,SSW,211,13.6,16.6,100,0.04,,OVC017,0.08,VWS V14.01,2013-02-13 16:34:00,
2013-02-13 10:35:00,38.1,38.1,30.01,WSW,249,15.3,16.6,100,0.04,,OVC010,0.08,VWS V14.01,2013-02-13 16:35:00,
2013-02-13 10:36:00,38.3,38.3,30.00,WSW,241,10.3,16.6,100,0.04,,OVC017,0.08,VWS V14.01,2013-02-13 16:36:00,
2013-02-13 10:38:00,38.3,38.3,30.00,WSW,254,16.4,17.2,100,0.04,,OVC017,0.08,VWS V14.01,2013-02-13 16:38:00,
2013-02-13 10:40:00,38.5,38.5,30.01,SW,231,12.5,17.2,100,0.04,,OVC010,0.08,VWS V14.01,2013-02-13 16:40:00,
2013-02-13 10:42:00,38.5,38.5,30.00,WSW,240,12.5,16.6,100,0.04,,OVC017,0.08,VWS V14.01,2013-02-13 16:42:00,
2013-02-13 10:44:00,38.7,38.7,30.00,SW,229,13.0,13.7,100,0.04,,OVC017,0.08,VWS V14.01,2013-02-13 16:44:00,
2013-02-13 10:45:00,38.7,38.7,30.01,West,264,13.0,13.7,100,0.04,,OVC010,0.08,VWS V14.01,2013-02-13 16:45:00,
2013-02-13 10:46:00,38.7,38.7,30.00,West,281,15.8,16.6,100,0.04,,OVC017,0.08,VWS V14.01,2013-02-13 16:46:00,
2013-02-13 10:48:00,38.8,38.8,30.00,SSW,208,13.0,16.6,100,0.04,,OVC017,0.08,VWS V14.01,2013-02-13 16:48:00,
2013-02-13 10:50:00,38.8,38.8,30.01,SW,236,11.9,17.2,100,0.04,,OVC010,0.08,VWS V14.01,2013-02-13 16:50:00,
2013-02-13 10:52:00,39.0,39.0,30.00,West,265,13.0,17.2,100,0.04,,OVC017,0.08,VWS V14.01,2013-02-13 16:52:00,
2013-02-13 10:54:00,39.4,39.4,30.00,SW,236,10.0,16.6,100,0.04,,OVC017,0.08,VWS V14.01,2013-02-13 16:54:00,
2013-02-13 10:55:00,39.6,39.6,30.01,SW,230,10.0,16.0,100,0.04,,OVC010,0.08,VWS V14.01,2013-02-13 16:55:00,
2013-02-13 10:56:00,39.7,39.7,30.00,WSW,245,13.0,16.0,100,0.04,,OVC017,0.08,VWS V14.01,2013-02-13 16:56:00,
2013-02-13 10:58:00,39.9,39.9,30.00,SW,235,13.6,17.2,100,0.04,,OVC017,0.08,VWS V14.01,2013-02-13 16:58:00,
2013-02-13 11:00:00,40.1,40.1,30.01,West,278,19.1,21.2,100,0.04,,OVC012,0.08,VWS V14.01,2013-02-13 17:00:00,
2013-02-13 11:02:00,40.1,40.1,30.00,WSW,252,14.7,21.2,100,0.04,,OVC017,0.08,VWS V14.01,2013-02-13 17:02:00,
2013-02-13 11:04:00,39.9,39.9,30.00,WSW,243,10.8,17.2,100,0.04,,OVC017,0.08,VWS V14.01,2013-02-13 17:04:00,
2013-02-13 11:05:00,40.1,40.1,30.01,WNW,291,10.3,14.2,100,0.04,,OVC012,0.08,VWS V14.01,2013-02-13 17:05:00,
2013-02-13 11:06:00,40.1,40.1,30.00,WSW,238,8.9,11.9,100,0.04,,OVC017,0.08,VWS V14.01,2013-02-13 17:06:00,
2013-02-13 11:08:00,40.3,40.3,30.00,West,277,15.3,16.6,100,0.04,,OVC017,0.08,VWS V14.01,2013-02-13 17:08:00,
2013-02-13 11:10:00,40.3,40.3,30.01,WSW,244,13.0,14.8,100,0.04,,OVC012,0.08,VWS V14.01,2013-02-13 17:10:00,
2013-02-13 11:12:00,40.3,40.3,30.00,West,279,19.1,20.6,100,0.04,,OVC017,0.08,VWS V14.01,2013-02-13 17:12:00,
2013-02-13 11:14:00,40.3,40.3,30.00,WNW,283,19.1,20.6,100,0.04,,OVC017,0.08,VWS V14.01,2013-02-13 17:14:00,
2013-02-13 11:15:00,40.5,40.5,30.01,West,273,12.5,20.1,100,0.04,,OVC012,0.08,VWS V14.01,2013-02-13 17:15:00,
2013-02-13 11:16:00,40.5,40.5,30.00,West,267,10.3,20.1,100,0.04,,OVC017,0.08,VWS V14.01,2013-02-13 17:16:00,
2013-02-13 11:18:00,40.5,40.5,30.00,West,261,10.8,14.2,100,0.04,,OVC017,0.08,VWS V14.01,2013-02-13 17:18:00,
2013-02-13 11:20:00,40.5,40.5,30.01,WSW,239,12.5,18.3,100,0.00,,OVC012,0.08,VWS V14.01,2013-02-13 17:20:00,
2013-02-13 11:22:00,40.5,40.5,30.00,West,275,15.3,18.3,100,0.00,,OVC017,0.08,VWS V14.01,2013-02-13 17:22:00,
2013-02-13 11:24:00,40.6,40.6,30.00,SW,217,15.3,16.0,100,0.00,,OVC017,0.08,VWS V14.01,2013-02-13 17:24:00,
2013-02-13 11:25:00,40.6,40.6,30.01,SW,222,10.8,16.6,100,0.00,,OVC012,0.08,VWS V14.01,2013-02-13 17:25:00,
2013-02-13 11:26:00,40.6,40.6,30.00,WSW,253,10.3,16.6,100,0.00,,OVC017,0.08,VWS V14.01,2013-02-13 17:26:00,
2013-02-13 11:28:00,40.8,40.8,30.00,WSW,243,13.0,16.0,100,0.00,,OVC017,0.08,VWS V14.01,2013-02-13 17:28:00,
2013-02-13 11:30:00,41.2,41.2,30.01,West,277,10.0,17.2,100,0.00,,OVC012,0.08,VWS V14.01,2013-02-13 17:30:00,
2013-02-13 11:32:00,41.4,41.4,30.00,WSW,239,10.3,11.9,100,0.00,,OVC017,0.08,VWS V14.01,2013-02-13 17:32:00,
2013-02-13 11:34:00,41.7,41.7,30.00,West,259,12.5,16.6,100,0.00,,OVC017,0.08,VWS V14.01,2013-02-13 17:34:00,
2013-02-13 11:35:00,41.9,41.9,30.01,NW,311,13.6,16.6,100,0.00,,OVC012,0.08,VWS V14.01,2013-02-13 17:35:00,
2013-02-13 11:36:00,41.9,41.9,30.00,WNW,285,12.5,14.2,100,0.00,,OVC017,0.08,VWS V14.01,2013-02-13 17:36:00,
2013-02-13 11:38:00,42.1,42.1,30.00,SW,236,12.5,17.2,100,0.00,,OVC017,0.08,VWS V14.01,2013-02-13 17:38:00,
2013-02-13 11:40:00,42.1,42.1,30.01,WNW,286,10.8,14.2,100,0.00,,OVC012,0.08,VWS V14.01,2013-02-13 17:40:00,
2013-02-13 11:42:00,41.9,41.9,30.00,West,261,13.0,16.6,100,0.00,,OVC017,0.08,VWS V14.01,2013-02-13 17:42:00,
2013-02-13 11:44:00,41.7,41.7,30.00,West,263,13.0,16.6,100,0.00,,OVC017,0.08,VWS V14.01,2013-02-13 17:44:00,
2013-02-13 11:45:00,41.7,41.7,30.01,West,261,11.9,18.9,100,0.00,,OVC014,0.08,VWS V14.01,2013-02-13 17:45:00,
2013-02-13 11:46:00,41.5,41.5,30.00,West,263,10.3,18.9,100,0.00,,OVC017,0.08,VWS V14.01,2013-02-13 17:46:00,
2013-02-13 11:48:00,41.7,41.7,30.00,West,261,15.3,16.0,100,0.00,,OVC017,0.08,VWS V14.01,2013-02-13 17:48:00,
2013-02-13 11:50:00,42.1,42.1,30.01,WNW,284,12.5,17.2,100,0.00,,OVC014,0.08,VWS V14.01,2013-02-13 17:50:00,
2013-02-13 11:52:00,42.1,42.1,30.00,West,271,10.0,14.2,100,0.00,,OVC017,0.08,VWS V14.01,2013-02-13 17:52:00,
2013-02-13 11:54:00,42.1,42.1,30.00,WNW,295,13.6,15.4,100,0.00,,OVC017,0.08,VWS V14.01,2013-02-13 17:54:00,
2013-02-13 11:55:00,42.1,42.1,30.01,West,268,13.0,17.2,100,0.00,,OVC014,0.08,VWS V14.01,2013-02-13 17:55:00,
2013-02-13 11:56:00,42.1,42.1,30.00,West,281,17.5,18.3,100,0.00,,OVC017,0.08,VWS V14.01,2013-02-13 17:56:00,
2013-02-13 11:58:00,42.3,42.0,30.00,WSW,241,17.5,18.3,99,0.00,,OVC017,0.08,VWS V14.01,2013-02-13 17:58:00,
2013-02-13 12:00:00,42.3,41.3,30.01,WSW,244,7.8,17.2,96,0.00,,OVC016,0.08,VWS V14.01,2013-02-13 18:00:00,
2013-02-13 12:02:00,42.4,41.1,30.00,West,263,10.8,14.2,95,0.00,,OVC017,0.08,VWS V14.01,2013-02-13 18:02:00,
2013-02-13 12:04:00,42.8,41.5,30.00,SW,223,15.3,16.0,95,0.00,,OVC017,0.08,VWS V14.01,2013-02-13 18:04:00,
2013-02-13 12:05:00,43.2,40.7,30.01,SSW,211,15.8,18.3,91,0.00,,OVC016,0.08,VWS V14.01,2013-02-13 18:05:00,
2013-02-13 12:06:00,43.2,40.7,30.00,SW,222,12.5,18.3,91,0.00,,OVC017,0.08,VWS V14.01,2013-02-13 18:06:00,
2013-02-13 12:08:00,43.5,40.7,30.00,SW,227,10.0,17.2,90,0.00,,OVC017,0.08,VWS V14.01,2013-02-13 18:08:00,
2013-02-13 12:10:00,43.7,39.7,30.01,SW,217,13.0,16.6,86,0.00,,OVC016,0.08,VWS V14.01,2013-02-13 18:10:00,
2013-02-13 12:12:00,43.9,39.9,30.00,SW,221,11.4,16.6,86,0.00,,OVC017,0.08,VWS V14.01,2013-02-13 18:12:00,
2013-02-13 12:14:00,44.1,39.7,30.00,WSW,245,17.5,19.5,84,0.00,,OVC017,0.08,VWS V14.01,2013-02-13 18:14:00,
2013-02-13 12:15:00,44.1,38.9,30.01,WSW,256,11.9,18.3,82,0.00,,OVC016,0.08,VWS V14.01,2013-02-13 18:15:00,
2013-02-13 12:16:00,44.1,38.9,30.00,West,261,10.3,18.3,82,0.00,,OVC017,0.08,VWS V14.01,2013-02-13 18:16:00,
2013-02-13 12:18:00,44.2,39.5,30.00,West,270,9.4,16.6,83,0.00,,OVC017,0.08,VWS V14.01,2013-02-13 18:18:00,
2013-02-13 12:20:00,44.6,39.8,30.00,WSW,257,13.6,16.6,83,0.00,,OVC017,0.08,VWS V14.01,2013-02-13 18:20:00,
2013-02-13 12:21:00,44.8,40.0,30.01,WSW,255,15.3,16.6,83,0.00,,OVC016,0.08,VWS V14.01,2013-02-13 18:21:00,
2013-02-13 12:22:00,44.8,38.7,30.00,WSW,249,16.4,17.7,79,0.00,,OVC017,0.08,VWS V14.01,2013-02-13 18:22:00,
2013-02-13 12:24:00,45.0,38.5,30.00,WNW,299,12.5,19.5,78,0.00,,OVC017,0.08,VWS V14.01,2013-02-13 18:24:00,
2013-02-13 12:26:00,45.0,38.5,29.98,WSW,238,9.4,17.2,78,0.00,,OVC016,0.08,VWS V14.01,2013-02-13 18:26:00,
2013-02-13 12:28:00,45.0,38.0,29.98,SW,233,18.6,20.6,77,0.00,,OVC017,0.08,VWS V14.01,2013-02-13 18:28:00,
2013-02-13 12:30:00,44.8,37.0,29.98,West,264,13.0,20.6,74,0.00,,OVC017,0.08,VWS V14.01,2013-02-13 18:30:00,
2013-02-13 12:31:00,45.0,37.2,29.98,WNW,285,15.8,16.6,74,0.00,,OVC016,0.08,VWS V14.01,2013-02-13 18:31:00,
2013-02-13 12:32:00,45.0,37.2,29.98,WSW,244,13.0,17.7,74,0.00,,OVC017,0.08,VWS V14.01,2013-02-13 18:32:00,
2013-02-13 12:34:00,45.1,37.3,29.98,SW,236,12.5,16.0,74,0.00,,OVC017,0.08,VWS V14.01,2013-02-13 18:34:00,
2013-02-13 12:36:00,45.3,37.5,29.98,SW,236,10.3,17.2,74,0.00,,OVC016,0.08,VWS V14.01,2013-02-13 18:36:00,
2013-02-13 12:38:00,45.3,36.6,29.98,SSW,205,9.4,16.0,71,0.00,,OVC017,0.08,VWS V14.01,2013-02-13 18:38:00,
2013-02-13 12:40:00,45.1,36.4,29.98,WSW,248,10.3,15.4,71,0.00,,OVC017,0.08,VWS V14.01,2013-02-13 18:40:00,
2013-02-13 12:41:00,45.1,36.4,29.98,WSW,249,12.5,15.4,71,0.00,,SCT020,0.08,VWS V14.01,2013-02-13 18:41:00,
2013-02-13 12:42:00,45.3,36.6,29.98,WSW,240,15.8,16.6,71,0.00,,OVC017,0.08,VWS V14.01,2013-02-13 18:42:00,
2013-02-13 12:44:00,45.3,36.6,29.98,WNW,288,13.6,17.2,71,0.00,,OVC017,0.08,VWS V14.01,2013-02-13 18:44:00,
2013-02-13 12:46:00,45.3,36.6,29.98,WSW,248,13.0,18.3,71,0.00,,SCT020,0.00,VWS V14.01,2013-02-13 18:46:00,
2013-02-13 12:48:00,45.5,36.8,29.98,West,264,13.0,16.0,71,0.00,,OVC017,0.08,VWS V14.01,2013-02-13 18:48:00,
2013-02-13 12:50:00,45.7,36.9,29.98,SW,236,20.8,21.8,71,0.00,,OVC017,0.08,VWS V14.01,2013-02-13 18:50:00,
2013-02-13 12:51:00,45.9,37.1,29.98,WSW,243,14.7,21.8,71,0.00,,SCT020,0.08,VWS V14.01,2013-02-13 18:51:00,
2013-02-13 12:52:00,45.9,37.1,29.98,West,267,15.3,21.8,71,0.00,,OVC017,0.08,VWS V14.01,2013-02-13 18:52:00,
2013-02-13 12:54:00,46.0,37.3,29.98,WSW,240,10.3,16.0,71,0.00,,OVC017,0.08,VWS V14.01,2013-02-13 18:54:00,
2013-02-13 12:56:00,46.2,37.0,29.98,WSW,239,13.0,20.1,70,0.00,,SCT020,0.08,VWS V14.01,2013-02-13 18:56:00,
2013-02-13 12:58:00,46.4,37.2,29.98,West,280,16.4,18.9,70,0.00,,OVC017,0.08,VWS V14.01,2013-02-13 18:58:00,
2013-02-13 13:00:00,46.4,36.2,29.98,West,280,13.6,21.2,67,0.00,,OVC017,0.08,VWS V14.01,2013-02-13 19:00:00,
2013-02-13 13:01:00,46.6,36.3,29.98,West,277,14.7,20.1,67,0.00,,SCT022,0.08,VWS V14.01,2013-02-13 19:01:00,
2013-02-13 13:02:00,46.6,35.8,29.98,WSW,251,15.3,16.6,66,0.00,,OVC017,0.08,VWS V14.01,2013-02-13 19:02:00,
2013-02-13 13:04:00,46.6,35.8,29.98,SW,220,10.0,16.6,66,0.00,,OVC017,0.08,VWS V14.01,2013-02-13 19:04:00,
2013-02-13 13:06:00,46.6,35.8,29.98,WNW,283,13.0,14.8,66,0.00,,SCT022,0.08,VWS V14.01,2013-02-13 19:06:00,
2013-02-13 13:08:00,46.8,36.5,29.98,WSW,240,15.3,16.0,67,0.00,,OVC017,0.08,VWS V14.01,2013-02-13 19:08:00,
2013-02-13 13:10:00,46.9,36.2,29.98,SW,233,11.9,17.2,66,0.00,,OVC017,0.08,VWS V14.01,2013-02-13 19:10:00,
2013-02-13 13:11:00,46.9,36.2,29.98,WSW,248,7.8,17.2,66,0.00,,SCT022,0.08,VWS V14.01,2013-02-13 19:11:00,
2013-02-13 13:12:00,46.9,36.2,29.98,WNW,292,9.4,13.7,66,0.00,,OVC017,0.08,VWS V14.01,2013-02-13 19:12:00,
2013-02-13 13:14:00,47.1,36.4,29.98,WSW,255,13.0,17.2,66,0.00,,OVC017,0.08,VWS V14.01,2013-02-13 19:14:00,
2013-02-13 13:16:00,47.3,36.5,29.98,WNW,289,14.7,16.6,66,0.00,,SCT022,0.08,VWS V14.01,2013-02-13 19:16:00,
2013-02-13 13:18:00,47.3,36.0,29.98,West,280,16.4,17.2,65,0.00,,OVC017,0.08,VWS V14.01,2013-02-13 19:18:00,
2013-02-13 13:20:00,47.3,35.5,29.98,WSW,244,13.0,18.9,63,0.00,,OVC017,0.08,VWS V14.01,2013-02-13 19:20:00,
2013-02-13 13:21:00,47.3,35.0,29.98,WSW,253,10.0,18.9,62,0.00,,FEW024,0.08,VWS V14.01,2013-02-13 19:21:00,
2013-02-13 13:22:00,47.3,35.0,29.98,WSW,255,15.8,17.2,62,0.00,,OVC017,0.08,VWS V14.01,2013-02-13 19:22:00,
2013-02-13 13:24:00,47.3,35.0,29.98,WSW,251,10.0,21.2,62,0.00,,OVC017,0.08,VWS V14.01,2013-02-13 19:24:00,
2013-02-13 13:26:00,47.5,35.7,29.98,West,273,10.8,14.8,63,0.00,,FEW024,0.08,VWS V14.01,2013-02-13 19:26:00,
2013-02-13 13:28:00,47.7,35.8,29.98,SW,227,15.8,16.6,63,0.00,,OVC017,0.08,VWS V14.01,2013-02-13 19:28:00,
2013-02-13 13:30:00,47.7,35.3,29.98,WSW,241,15.8,19.5,62,0.00,,OVC017,0.08,VWS V14.01,2013-02-13 19:30:00,
2013-02-13 13:31:00,47.7,35.3,29.98,WSW,257,10.8,19.5,62,0.00,,FEW024,0.08,VWS V14.01,2013-02-13 19:31:00,
2013-02-13 13:32:00,47.7,35.3,29.98,WSW,246,13.6,19.5,62,0.00,,OVC017,0.08,VWS V14.01,2013-02-13 19:32:00,
2013-02-13 13:34:00,47.7,34.8,29.98,SW,229,12.5,19.5,61,0.00,,OVC017,0.08,VWS V14.01,2013-02-13 19:34:00,
2013-02-13 13:36:00,47.7,34.2,29.98,WSW,248,15.3,20.1,59,0.00,,FEW024,0.08,VWS V14.01,2013-02-13 19:36:00,
2013-02-13 13:38:00,47.7,33.7,29.98,WNW,293,15.3,17.7,58,0.00,,OVC017,0.08,VWS V14.01,2013-02-13 19:38:00,
2013-02-13 13:40:00,47.8,33.2,29.98,West,260,13.6,20.6,57,0.00,,OVC017,0.08,VWS V14.01,2013-02-13 19:40:00,
2013-02-13 13:41:00,47.8,33.2,29.98,SW,216,10.8,19.5,57,0.00,,FEW024,0.08,VWS V14.01,2013-02-13 19:41:00,
2013-02-13 13:42:00,47.8,33.2,29.98,SW,226,14.1,16.6,57,0.00,,OVC017,0.08,VWS V14.01,2013-02-13 19:42:00,
2013-02-13 13:44:00,47.8,33.8,29.98,SW,221,13.6,16.0,58,0.00,,OVC017,0.08,VWS V14.01,2013-02-13 19:44:00,
2013-02-13 13:46:00,48.0,34.0,29.98,WNW,303,10.0,13.1,58,0.00,,FEW024,0.08,VWS V14.01,2013-02-13 19:46:00,
2013-02-13 13:48:00,48.0,34.0,29.98,SW,236,11.9,19.5,58,0.00,,OVC017,0.08,VWS V14.01,2013-02-13 19:48:00,
2013-02-13 13:50:00,48.2,33.6,29.98,SW,233,19.1,20.1,57,0.00,,OVC017,0.08,VWS V14.01,2013-02-13 19:50:00,
2013-02-13 13:51:00,48.4,33.2,29.98,SW,226,7.2,20.1,55,0.00,,FEW024,0.08,VWS V14.01,2013-02-13 19:51:00,
2013-02-13 13:52:00,48.4,33.2,29.98,WSW,238,10.8,19.5,55,0.00,,OVC017,0.08,VWS V14.01,2013-02-13 19:52:00,
2013-02-13 13:54:00,48.4,33.2,29.98,WSW,252,10.0,13.7,55,0.00,,OVC017,0.08,VWS V14.01,2013-02-13 19:54:00,
2013-02-13 13:56:00,48.6,33.9,29.95,SW,234,15.3,16.0,57,0.00,,FEW024,0.08,VWS V14.01,2013-02-13 19:56:00,
2013-02-13 13:58:00,48.7,33.5,29.95,West,260,13.0,16.6,55,0.00,,OVC017,0.08,VWS V14.01,2013-02-13 19:58:00,
2013-02-13 14:00:00,48.7,33.5,29.95,WSW,247,11.9,16.6,55,0.00,,OVC017,0.08,VWS V14.01,2013-02-13 20:00:00,
2013-02-13 14:01:00,48.7,33.5,29.95,WNW,287,20.8,21.8,55,0.00,,CLR,0.08,VWS V14.01,2013-02-13 20:01:00,
2013-02-13 14:02:00,48.9,33.7,29.95,West,262,15.8,21.8,55,0.00,,OVC017,0.08,VWS V14.01,2013-02-13 20:02:00,
2013-02-13 14:04:00,49.1,33.2,29.95,West,268,10.8,18.9,54,0.00,,OVC017,0.08,VWS V14.01,2013-02-13 20:04:00,
2013-02-13 14:06:00,49.1,33.2,29.95,WNW,283,19.1,20.1,54,0.00,,CLR,0.08,VWS V14.01,2013-02-13 20:06:00,
2013-02-13 14:08:00,49.1,33.2,29.95,WSW,242,15.3,22.7,54,0.00,,OVC017,0.08,VWS V14.01,2013-02-13 20:08:00,
2013-02-13 14:10:00,49.1,32.6,29.95,SW,236,13.6,17.2,53,0.00,,OVC017,0.08,VWS V14.01,2013-02-13 20:10:00,
2013-02-13 14:11:00,49.1,32.6,29.95,WSW,243,10.8,17.2,53,0.00,,CLR,0.08,VWS V14.01,2013-02-13 20:11:00,
2013-02-13 14:12:00,49.1,32.6,29.95,SW,233,12.5,17.2,53,0.00,,OVC017,0.08,VWS V14.01,2013-02-13 20:12:00,
2013-02-13 14:14:00,49.3,32.8,29.95,West,273,15.8,16.6,53,0.00,,OVC017,0.08,VWS V14.01,2013-02-13 20:14:00,
2013-02-13 14:16:00,49.3,32.2,29.95,SW,236,15.8,20.1,51,0.00,,CLR,0.08,VWS V14.01,2013-02-13 20:16:00,
2013-02-13 14:18:00,49.3,32.2,29.95,WSW,251,10.0,18.3,51,0.00,,OVC017,0.08,VWS V14.01,2013-02-13 20:18:00,
2013-02-13 14:20:00,49.3,32.2,29.95,West,274,13.6,14.2,51,0.00,,OVC017,0.08,VWS V14.01,2013-02-13 20:20:00,
2013-02-13 14:22:00,49.3,32.2,29.95,WNW,297,13.0,18.3,51,0.00,,CLR,0.08,VWS V14.01,2013-02-13 20:22:00,
2013-02-13 14:24:00,49.5,33.0,29.95,West,279,13.6,20.1,53,0.00,,OVC017,0.08,VWS V14.01,2013-02-13 20:24:00,
2013-02-13 14:26:00,49.5,32.3,29.95,WSW,240,14.1,16.0,51,0.00,,OVC017,0.08,VWS V14.01,2013-02-13 20:26:00,
2013-02-13 14:27:00,49.5,32.3,29.95,WSW,256,10.8,16.0,51,0.00,,CLR,0.08,VWS V14.01,2013-02-13 20:27:00,
2013-02-13 14:28:00,49.6,32.5,29.95,SW,230,10.0,16.6,51,0.00,,OVC017,0.08,VWS V14.01,2013-02-13 20:28:00,
2013-02-13 14:30:00,49.6,31.9,29.95,WSW,250,10.0,18.3,50,0.00,,OVC017,0.08,VWS V14.01,2013-02-13 20:30:00,
2013-02-13 14:32:00,49.6,31.9,29.95,West,277,13.6,19.5,50,0.00,,CLR,0.08,VWS V14.01,2013-02-13 20:32:00,
2013-02-13 14:34:00,49.6,31.9,29.95,WSW,250,12.5,19.5,50,0.00,,OVC017,0.08,VWS V14.01,2013-02-13 20:34:00,
2013-02-13 14:36:00,49.8,32.0,29.95,WSW,251,10.8,17.2,50,0.00,,OVC017,0.08,VWS V14.01,2013-02-13 20:36:00,
2013-02-13 14:37:00,49.8,32.0,29.95,SW,223,10.8,17.2,50,0.00,,CLR,0.08,VWS V14.01,2013-02-13 20:37:00,
2013-02-13 14:38:00,49.8,32.0,29.95,SW,219,13.0,17.2,50,0.00,,OVC017,0.08,VWS V14.01,2013-02-13 20:38:00,
2013-02-13 14:40:00,50.0,32.2,29.95,SW,228,12.5,16.0,50,0.00,,OVC017,0.08,VWS V14.01,2013-02-13 20:40:00,
2013-02-13 14:42:00,50.0,32.2,29.95,WSW,252,10.3,13.7,50,0.00,,CLR,0.08,VWS V14.01,2013-02-13 20:42:00,
2013-02-13 14:44:00,49.8,32.0,29.95,West,276,13.0,13.7,50,0.00,,OVC017,0.08,VWS V14.01,2013-02-13 20:44:00,
2013-02-13 14:46:00,50.0,32.2,29.95,West,281,9.4,14.2,50,0.00,,OVC017,0.08,VWS V14.01,2013-02-13 20:46:00,
2013-02-13 14:47:00,50.2,32.3,29.95,WNW,303,19.1,20.1,50,0.00,,CLR,0.08,VWS V14.01,2013-02-13 20:47:00,
2013-02-13 14:48:00,50.2,32.3,29.95,WSW,245,13.6,20.1,50,0.00,,OVC017,0.08,VWS V14.01,2013-02-13 20:48:00,
2013-02-13 14:50:00,50.2,32.3,29.95,WSW,242,8.9,20.1,50,0.00,,OVC017,0.08,VWS V14.01,2013-02-13 20:50:00,
2013-02-13 14:52:00,50.2,31.7,29.95,WNW,290,11.4,20.1,49,0.00,,CLR,0.08,VWS V14.01,2013-02-13 20:52:00,
2013-02-13 14:54:00,50.2,31.7,29.95,SW,233,10.3,16.6,49,0.00,,OVC017,0.08,VWS V14.01,2013-02-13 20:54:00,
2013-02-13 14:56:00,50.2,31.7,29.95,WSW,240,10.0,14.2,49,0.00,,OVC017,0.08,VWS V14.01,2013-02-13 20:56:00,
2013-02-13 14:57:00,50.2,31.7,29.95,WSW,248,13.0,13.7,49,0.00,,CLR,0.08,VWS V14.01,2013-02-13 20:57:00,
2013-02-13 14:58:00,50.2,31.7,29.95,West,277,13.0,13.7,49,0.00,,OVC017,0.08,VWS V14.01,2013-02-13 20:58:00,
2013-02-13 15:00:00,50.4,31.9,29.95,SW,230,13.6,17.2,49,0.00,,OVC017,0.08,VWS V14.01,2013-02-13 21:00:00,
2013-02-13 15:02:00,50.4,31.9,29.95,SW,229,10.0,16.6,49,0.00,,CLR,0.08,VWS V14.01,2013-02-13 21:02:00,
2013-02-13 15:04:00,50.4,31.9,29.95,West,264,7.2,16.0,49,0.00,,OVC017,0.08,VWS V14.01,2013-02-13 21:04:00,
2013-02-13 15:06:00,50.4,31.9,29.95,West,278,10.0,13.1,49,0.00,,OVC017,0.08,VWS V14.01,2013-02-13 21:06:00,
2013-02-13 15:07:00,50.4,31.9,29.95,WSW,246,16.4,17.2,49,0.00,,CLR,0.08,VWS V14.01,2013-02-13 21:07:00,
2013-02-13 15:08:00,50.4,31.9,29.95,SW,236,15.3,17.2,49,0.00,,OVC017,0.08,VWS V14.01,2013-02-13 21:08:00,
2013-02-13 15:10:00,50.5,32.0,29.95,WSW,245,14.7,16.0,49,0.00,,OVC017,0.08,VWS V14.01,2013-02-13 21:10:00,
2013-02-13 15:12:00,50.5,32.0,29.95,WNW,300,7.8,14.2,49,0.00,,CLR,0.08,VWS V14.01,2013-02-13 21:12:00,
2013-02-13 15:14:00,50.5,32.0,29.95,NW,307,10.3,15.4,49,0.00,,OVC017,0.08,VWS V14.01,2013-02-13 21:14:00,
2013-02-13 15:16:00,50.5,32.0,29.95,WNW,285,18.6,19.5,49,0.00,,OVC017,0.08,VWS V14.01,2013-02-13 21:16:00,
2013-02-13 15:17:00,50.7,32.2,29.95,WSW,256,15.3,19.5,49,0.00,,CLR,0.08,VWS V14.01,2013-02-13 21:17:00,
2013-02-13 15:18:00,50.7,32.2,29.95,West,262,12.5,19.5,49,0.00,,OVC017,0.08,VWS V14.01,2013-02-13 21:18:00,
2013-02-13 15:20:00,50.7,32.2,29.95,West,260,9.4,16.6,49,0.00,,OVC017,0.08,VWS V14.01,2013-02-13 21:20:00,
2013-02-13 15:22:00,50.7,32.2,29.95,West,260,10.3,20.6,49,0.00,,CLR,0.08,VWS V14.01,2013-02-13 21:22:00,
2013-02-13 15:24:00,50.7,32.2,29.95,West,264,11.4,16.6,49,0.00,,OVC017,0.08,VWS V14.01,2013-02-13 21:24:00,
2013-02-13 15:26:00,50.7,32.2,29.95,WSW,240,9.4,16.6,49,0.00,,OVC017,0.08,VWS V14.01,2013-02-13 21:26:00,
2013-02-13 15:27:00,50.7,32.2,29.95,SW,232,13.0,16.6,49,0.00,,CLR,0.08,VWS V14.01,2013-02-13 21:27:00,
2013-02-13 15:28:00,50.7,32.2,29.95,WSW,246,12.5,17.2,49,0.00,,OVC017,0.08,VWS V14.01,2013-02-13 21:28:00,
2013-02-13 15:30:00,50.7,32.2,29.95,WSW,239,10.3,14.2,49,0.00,,OVC017,0.08,VWS V14.01,2013-02-13 21:30:00,
2013-02-13 15:32:00,50.7,32.2,29.95,WNW,289,15.3,20.1,49,0.00,,CLR,0.00,VWS V14.01,2013-02-13 21:32:00,
2013-02-13 15:34:00,50.7,31.5,29.95,WNW,290,11.4,20.1,48,0.00,,OVC017,0.08,VWS V14.01,2013-02-13 21:34:00,
2013-02-13 15:36:00,50.7,31.5,29.95,WSW,254,10.8,16.6,48,0.00,,OVC017,0.08,VWS V14.01,2013-02-13 21:36:00,
2013-02-13 15:37:00,50.7,31.5,29.95,West,271,17.5,18.3,48,0.00,,CLR,0.08,VWS V14.01,2013-02-13 21:37:00,
2013-02-13 15:38:00,50.7,31.5,29.95,WSW,257,13.6,18.3,48,0.00,,OVC017,0.08,VWS V14.01,2013-02-13 21:38:00,
2013-02-13 15:40:00,50.9,31.7,29.95,WSW,248,13.6,17.2,48,0.00,,OVC017,0.08,VWS V14.01,2013-02-13 21:40:00,
2013-02-13 15:42:00,50.9,31.7,29.95,WSW,252,9.4,13.7,48,0.00,,CLR,0.08,VWS V14.01,2013-02-13 21:42:00,
2013-02-13 15:44:00,50.9,32.4,29.95,West,271,12.5,13.1,49,0.00,,OVC017,0.08,VWS V14.01,2013-02-13 21:44:00,
2013-02-13 15:46:00,50.9,32.4,29.95,WSW,243,14.1,14.8,49,0.00,,OVC017,0.08,VWS V14.01,2013-02-13 21:46:00,
2013-02-13 15:47:00,51.1,31.8,29.95,SW,232,10.3,14.8,48,0.00,,CLR,0.08,VWS V14.01,2013-02-13 21:47:00,
2013-02-13 15:48:00,50.9,31.7,29.95,SW,232,13.6,14.8,48,0.00,,OVC017,0.08,VWS V14.01,2013-02-13 21:48:00,
2013-02-13 15:50:00,50.9,32.4,29.95,WNW,284,12.5,14.2,49,0.00,,OVC017,0.08,VWS V14.01,2013-02-13 21:50:00,
2013-02-13 15:52:00,51.1,31.8,29.95,West,279,13.0,17.2,48,0.00,,CLR,0.08,VWS V14.01,2013-02-13 21:52:00,
2013-02-13 15:54:00,51.1,31.8,29.95,WNW,289,9.4,17.2,48,0.00,,OVC017,0.08,VWS V14.01,2013-02-13 21:54:00,
2013-02-13 15:56:00,51.1,31.8,29.95,WNW,282,10.0,16.0,48,0.00,,OVC017,0.08,VWS V14.01,2013-02-13 21:56:00,
2013-02-13 15:57:00,51.1,31.8,29.95,SW,233,10.8,14.2,48,0.00,,CLR,0.08,VWS V14.01,2013-02-13 21:57:00,
2013-02-13 15:58:00,51.1,31.8,29.95,SW,226,10.3,14.2,48,0.00,,OVC017,0.08,VWS V14.01,2013-02-13 21:58:00,
2013-02-13 16:00:00,51.1,31.8,29.95,WNW,297,10.3,16.0,48,0.00,,OVC017,0.08,VWS V14.01,2013-02-13 22:00:00,
2013-02-13 16:02:00,51.1,31.8,29.95,West,272,9.4,13.7,48,0.00,,CLR,0.08,VWS V14.01,2013-02-13 22:02:00,
2013-02-13 16:04:00,51.1,31.8,29.95,West,276,7.2,17.2,48,0.00,,OVC017,0.08,VWS V14.01,2013-02-13 22:04:00,
2013-02-13 16:06:00,51.1,31.8,29.95,SW,234,10.8,13.7,48,0.00,,OVC017,0.08,VWS V14.01,2013-02-13 22:06:00,
2013-02-13 16:07:00,50.9,31.7,29.95,SW,215,9.4,13.7,48,0.00,,CLR,0.08,VWS V14.01,2013-02-13 22:07:00,
2013-02-13 16:08:00,50.9,31.7,29.95,SW,222,12.5,13.7,48,0.00,,OVC017,0.08,VWS V14.01,2013-02-13 22:08:00,
2013-02-13 16:10:00,50.9,31.7,29.95,WNW,288,9.4,14.2,48,0.00,,OVC017,0.08,VWS V14.01,2013-02-13 22:10:00,
2013-02-13 16:12:00,50.9,31.7,29.95,West,259,10.0,13.1,48,0.00,,CLR,0.08,VWS V14.01,2013-02-13 22:12:00,
2013-02-13 16:14:00,50.9,31.7,29.95,West,277,9.4,10.8,48,0.00,,OVC017,0.08,VWS V14.01,2013-02-13 22:14:00,
2013-02-13 16:16:00,51.1,31.8,29.95,WSW,247,12.5,13.1,48,0.00,,OVC017,0.08,VWS V14.01,2013-02-13 22:16:00,
2013-02-13 16:17:00,51.1,31.8,29.95,SW,235,10.8,13.1,48,0.00,,CLR,0.08,VWS V14.01,2013-02-13 22:17:00,
2013-02-13 16:18:00,51.1,31.8,29.95,WSW,244,10.3,13.1,48,0.00,,OVC017,0.08,VWS V14.01,2013-02-13 22:18:00,
2013-02-13 16:20:00,51.1,31.8,29.95,West,276,7.8,13.1,48,0.00,,OVC017,0.08,VWS V14.01,2013-02-13 22:20:00,
2013-02-13 16:22:00,51.1,31.8,29.95,West,274,10.3,16.6,48,0.00,,CLR,0.08,VWS V14.01,2013-02-13 22:22:00,
2013-02-13 16:26:00,50.9,31.7,29.95,West,269,10.8,15.4,48,0.00,,OVC017,0.08,VWS V14.01,2013-02-13 22:26:00,
2013-02-13 16:27:00,50.9,31.7,29.95,WNW,287,10.8,13.1,48,0.00,,CLR,0.08,VWS V14.01,2013-02-13 22:27:00,
2013-02-13 16:28:00,50.9,31.7,29.95,West,259,9.4,13.1,48,0.00,,OVC017,0.08,VWS V14.01,2013-02-13 22:28:00,
2013-02-13 16:30:00,50.9,31.7,29.95,West,276,10.3,13.7,48,0.00,,OVC017,0.08,VWS V14.01,2013-02-13 22:30:00,
2013-02-13 16:32:00,50.9,31.7,29.95,West,259,10.3,11.3,48,0.00,,OVC017,0.08,VWS V14.01,2013-02-13 22:32:00,
2013-02-13 16:33:00,50.9,31.7,29.95,WSW,256,7.2,11.3,48,0.00,,CLR,0.08,VWS V14.01,2013-02-13 22:33:00,
2013-02-13 16:34:00,51.1,31.8,29.95,West,276,10.3,12.5,48,0.00,,OVC017,0.08,VWS V14.01,2013-02-13 22:34:00,
2013-02-13 16:36:00,51.1,31.8,29.95,West,270,13.6,14.2,48,0.00,,OVC017,0.08,VWS V14.01,2013-02-13 22:36:00,
2013-02-13 16:38:00,51.1,31.8,29.95,West,270,13.6,14.2,48,0.00,,CLR,0.08,VWS V14.01,2013-02-13 22:38:00,
2013-02-13 16:40:00,51.1,31.8,29.95,WSW,250,15.8,16.6,48,0.00,,OVC017,0.08,VWS V14.01,2013-02-13 22:40:00,
2013-02-13 16:42:00,50.9,31.7,29.95,WSW,239,10.3,16.6,48,0.00,,OVC017,0.08,VWS V14.01,2013-02-13 22:42:00,
2013-02-13 16:43:00,50.9,31.7,29.95,WNW,300,10.3,12.5,48,0.00,,CLR,0.08,VWS V14.01,2013-02-13 22:43:00,
2013-02-13 16:44:00,50.9,31.7,29.95,West,281,12.5,13.1,48,0.00,,OVC017,0.08,VWS V14.01,2013-02-13 22:44:00,
2013-02-13 16:46:00,50.7,31.5,29.95,West,272,12.5,17.2,48,0.00,,OVC017,0.08,VWS V14.01,2013-02-13 22:46:00,
2013-02-13 16:48:00,50.5,31.4,29.95,WSW,241,10.0,13.1,48,0.00,,CLR,0.08,VWS V14.01,2013-02-13 22:48:00,
2013-02-13 16:50:00,50.5,31.4,29.95,WSW,246,7.8,16.0,48,0.00,,OVC017,0.08,VWS V14.01,2013-02-13 22:50:00,
2013-02-13 16:52:00,50.5,31.4,29.95,West,264,13.6,14.2,48,0.00,,OVC017,0.08,VWS V14.01,2013-02-13 22:52:00,
2013-02-13 16:54:00,50.4,31.2,29.95,WSW,248,10.0,17.2,48,0.00,,CLR,0.08,VWS V14.01,2013-02-13 22:54:00,
2013-02-13 17:26:00,49.1,30.7,29.95,WSW,249,10.8,11.3,49,0.00,,,0.08,VWS V14.01,2013-02-13 23:26:00,
2013-02-13 17:28:00,48.9,30.5,29.95,West,265,12.5,14.2,49,0.00,,OVC017,0.08,VWS V14.01,2013-02-13 23:28:00,
2013-02-13 17:30:00,48.7,30.4,29.95,SW,224,10.3,16.6,49,0.00,,OVC017,0.08,VWS V14.01,2013-02-13 23:30:00,
2013-02-13 17:31:00,48.7,30.4,29.95,West,259,10.8,16.6,49,0.00,,CLR,0.08,VWS V14.01,2013-02-13 23:31:00,
2013-02-13 17:32:00,48.7,30.4,29.95,WSW,253,10.3,16.0,49,0.00,,OVC017,0.08,VWS V14.01,2013-02-13 23:32:00,
2013-02-13 17:34:00,48.6,30.2,29.95,SW,226,7.2,10.8,49,0.00,,OVC017,0.08,VWS V14.01,2013-02-13 23:34:00,
2013-02-13 17:36:00,48.6,30.2,29.95,WSW,249,9.4,9.9,49,0.00,,CLR,0.08,VWS V14.01,2013-02-13 23:36:00,
2013-02-13 17:38:00,48.4,30.0,29.95,WSW,257,9.4,13.1,49,0.00,,OVC017,0.08,VWS V14.01,2013-02-13 23:38:00,
2013-02-13 17:40:00,48.4,30.0,29.95,West,281,13.0,14.2,49,0.00,,OVC017,0.08,VWS V14.01,2013-02-13 23:40:00,
2013-02-13 17:41:00,48.2,29.9,29.95,West,267,7.8,16.0,49,0.00,,CLR,0.08,VWS V14.01,2013-02-13 23:41:00,
2013-02-13 17:42:00,48.2,29.9,29.95,West,273,7.8,16.0,49,0.00,,OVC017,0.08,VWS V14.01,2013-02-13 23:42:00,
2013-02-13 17:44:00,48.0,30.4,29.95,WSW,240,6.7,10.5,50,0.00,,OVC017,0.08,VWS V14.01,2013-02-13 23:44:00,
2013-02-13 17:46:00,47.8,30.2,29.95,WSW,251,7.2,11.3,50,0.00,,CLR,0.08,VWS V14.01,2013-02-13 23:46:00,
2013-02-13 17:48:00,47.5,29.9,29.95,West,266,11.4,11.9,50,0.00,,OVC017,0.08,VWS V14.01,2013-02-13 23:48:00,
2013-02-13 17:50:00,47.3,29.7,29.95,WSW,246,10.3,11.9,50,0.00,,OVC017,0.08,VWS V14.01,2013-02-13 23:50:00,
2013-02-13 17:51:00,47.3,29.7,29.95,WSW,258,7.8,11.3,50,0.00,,CLR,0.08,VWS V14.01,2013-02-13 23:51:00,
2013-02-13 17:52:00,47.3,29.7,29.95,West,268,10.0,13.1,50,0.00,,OVC017,0.08,VWS V14.01,2013-02-13 23:52:00,
2013-02-13 17:54:00,47.1,29.5,29.95,SW,233,9.4,10.8,50,0.00,,OVC017,0.08,VWS V14.01,2013-02-13 23:54:00,
2013-02-13 17:56:00,47.1,29.5,29.95,West,277,7.2,10.5,50,0.00,,CLR,0.08,VWS V14.01,2013-02-13 23:56:00,
2013-02-13 17:58:00,46.9,29.4,29.95,SW,231,7.8,9.9,50,0.00,,OVC017,0.08,VWS V14.01,2013-02-13 23:58:00,
2013-02-13 18:00:00,46.8,29.2,29.95,WSW,238,6.7,9.9,50,0.00,,OVC017,0.08,VWS V14.01,2013-02-14 00:00:00,
2013-02-13 18:01:00,46.6,29.0,29.95,SW,230,7.8,8.1,50,0.00,,CLR,0.08,VWS V14.01,2013-02-14 00:01:00,
2013-02-13 18:02:00,46.6,29.0,29.95,SW,228,5.0,8.1,50,0.00,,OVC017,0.08,VWS V14.01,2013-02-14 00:02:00,
2013-02-13 18:04:00,46.4,28.9,29.95,SW,229,7.2,8.1,50,0.00,,OVC017,0.08,VWS V14.01,2013-02-14 00:04:00,
2013-02-13 18:06:00,46.2,29.3,29.95,WSW,239,5.0,8.1,51,0.00,,CLR,0.08,VWS V14.01,2013-02-14 00:06:00,
2013-02-13 18:08:00,45.9,29.0,29.95,WSW,242,7.2,7.6,51,0.00,,OVC017,0.08,VWS V14.01,2013-02-14 00:08:00,
2013-02-13 18:10:00,45.7,28.8,29.95,WSW,241,5.0,7.6,51,0.00,,OVC017,0.08,VWS V14.01,2013-02-14 00:10:00,
2013-02-13 18:11:00,45.5,28.7,29.95,SW,230,4.4,7.6,51,0.00,,CLR,0.08,VWS V14.01,2013-02-14 00:11:00,
2013-02-13 18:12:00,45.5,28.7,29.95,WSW,250,6.7,7.6,51,0.00,,OVC017,0.08,VWS V14.01,2013-02-14 00:12:00,
2013-02-13 18:14:00,45.3,28.5,29.95,SW,235,5.0,7.6,51,0.00,,OVC017,0.08,VWS V14.01,2013-02-14 00:14:00,
2013-02-13 18:16:00,45.1,28.3,29.95,WSW,238,4.4,5.2,51,0.00,,CLR,0.08,VWS V14.01,2013-02-14 00:16:00,
2013-02-13 18:18:00,45.1,28.3,29.95,WSW,249,6.1,7.6,51,0.00,,OVC017,0.08,VWS V14.01,2013-02-14 00:18:00,
2013-02-13 18:20:00,45.0,28.2,29.95,WSW,239,5.0,7.0,51,0.00,,OVC017,0.08,VWS V14.01,2013-02-14 00:20:00,
2013-02-13 18:21:00,45.0,28.2,29.95,WSW,244,6.1,7.0,51,0.00,,CLR,0.08,VWS V14.01,2013-02-14 00:21:00,
2013-02-13 18:22:00,44.8,28.6,29.95,SW,232,6.7,7.0,53,0.00,,OVC017,0.08,VWS V14.01,2013-02-14 00:22:00,
2013-02-13 18:24:00,44.8,28.6,29.95,SW,226,3.3,7.0,53,0.00,,OVC017,0.08,VWS V14.01,2013-02-14 00:24:00,
2013-02-13 18:26:00,44.6,28.5,29.95,SW,225,4.4,5.2,53,0.00,,CLR,0.08,VWS V14.01,2013-02-14 00:26:00,
2013-02-13 18:28:00,44.4,28.3,29.95,SW,227,3.9,6.4,53,0.00,,OVC017,0.08,VWS V14.01,2013-02-14 00:28:00,
2013-02-13 18:30:00,44.2,28.1,29.95,WSW,237,4.4,5.2,53,0.00,,OVC017,0.08,VWS V14.01,2013-02-14 00:30:00,
2013-02-13 18:31:00,44.2,28.7,29.95,SW,235,3.9,5.2,54,0.00,,CLR,0.08,VWS V14.01,2013-02-14 00:31:00,
2013-02-13 18:32:00,44.1,28.5,29.95,WSW,249,6.7,7.0,54,0.00,,OVC017,0.08,VWS V14.01,2013-02-14 00:32:00,
2013-02-13 18:34:00,44.1,28.5,29.95,SW,231,4.4,7.0,54,0.00,,OVC017,0.08,VWS V14.01,2013-02-14 00:34:00,
2013-02-13 18:36:00,44.1,28.5,29.95,SW,235,3.9,5.2,54,0.00,,CLR,0.08,VWS V14.01,2013-02-14 00:36:00,
2013-02-13 18:38:00,43.9,28.4,29.95,SW,235,3.9,4.7,54,0.00,,OVC017,0.08,VWS V14.01,2013-02-14 00:38:00,
2013-02-13 18:40:00,43.7,28.2,29.95,SW,235,3.3,5.2,54,0.00,,OVC017,0.08,VWS V14.01,2013-02-14 00:40:00,
2013-02-13 18:41:00,43.7,28.2,29.95,SW,235,2.8,4.1,54,0.00,,CLR,0.08,VWS V14.01,2013-02-14 00:41:00,
2013-02-13 18:42:00,43.7,28.2,29.95,SW,235,3.9,4.1,54,0.00,,OVC017,0.08,VWS V14.01,2013-02-14 00:42:00,
2013-02-13 18:44:00,43.5,28.0,29.95,WSW,244,3.9,4.7,54,0.00,,OVC017,0.08,VWS V14.01,2013-02-14 00:44:00,
2013-02-13 18:46:00,43.2,27.7,29.95,WSW,246,3.9,5.2,54,0.00,,CLR,0.08,VWS V14.01,2013-02-14 00:46:00,
2013-02-13 18:48:00,43.2,28.3,29.95,WSW,240,3.3,5.2,55,0.00,,OVC017,0.08,VWS V14.01,2013-02-14 00:48:00,
2013-02-13 18:50:00,42.8,28.0,29.95,SW,232,3.3,6.4,55,0.00,,OVC017,0.08,VWS V14.01,2013-02-14 00:50:00,
2013-02-13 18:51:00,42.8,28.0,29.95,WSW,239,4.4,4.7,55,0.00,,CLR,0.08,VWS V14.01,2013-02-14 00:51:00,
2013-02-13 18:52:00,42.8,28.0,29.95,WSW,237,3.3,4.7,55,0.00,,OVC017,0.08,VWS V14.01,2013-02-14 00:52:00,
2013-02-13 18:54:00,42.4,27.6,29.95,SW,235,3.9,4.7,55,0.00,,OVC017,0.08,VWS V14.01,2013-02-14 00:54:00,
2013-02-13 18:56:00,42.3,28.0,29.95,SW,235,3.3,4.7,57,0.00,,CLR,0.08,VWS V14.01,2013-02-14 00:56:00,
2013-02-13 18:58:00,42.1,27.9,29.95,WSW,251,6.1,6.4,57,0.00,,OVC017,0.08,VWS V14.01,2013-02-14 00:58:00,
2013-02-13 19:00:00,42.1,27.9,29.95,SW,222,5.0,7.6,57,0.00,,OVC017,0.08,VWS V14.01,2013-02-14 01:00:00,
2013-02-13 19:01:00,42.1,27.9,29.95,WSW,244,4.4,6.4,57,0.00,,CLR,0.08,VWS V14.01,2013-02-14 01:01:00,
2013-02-13 19:02:00,42.1,27.9,29.95,WSW,250,3.9,5.8,57,0.00,,OVC017,0.08,VWS V14.01,2013-02-14 01:02:00,
2013-02-13 19:04:00,41.9,27.7,29.95,WSW,246,4.4,5.2,57,0.00,,OVC017,0.08,VWS V14.01,2013-02-14 01:04:00,
2013-02-13 19:06:00,41.7,28.1,29.95,WSW,251,5.0,5.8,58,0.00,,CLR,0.08,VWS V14.01,2013-02-14 01:06:00,
2013-02-13 19:08:00,41.7,28.1,29.95,WSW,240,5.0,6.4,58,0.00,,OVC017,0.08,VWS V14.01,2013-02-14 01:08:00,
2013-02-13 19:10:00,41.7,28.1,29.95,SW,234,5.0,5.2,58,0.00,,OVC017,0.08,VWS V14.01,2013-02-14 01:10:00,
2013-02-13 19:11:00,41.7,28.1,29.95,SW,225,4.4,5.2,58,0.00,,CLR,0.08,VWS V14.01,2013-02-14 01:11:00,
2013-02-13 19:12:00,41.7,28.1,29.95,SW,225,3.9,5.2,58,0.00,,OVC017,0.08,VWS V14.01,2013-02-14 01:12:00,
2013-02-13 19:14:00,41.7,28.6,29.95,SW,227,5.0,7.0,59,0.00,,OVC017,0.08,VWS V14.01,2013-02-14 01:14:00,
2013-02-13 19:16:00,41.7,28.6,29.95,SW,225,6.1,6.4,59,0.00,,CLR,0.08,VWS V14.01,2013-02-14 01:16:00,
2013-02-13 19:18:00,41.9,28.8,29.95,SW,235,4.4,6.4,59,0.00,,OVC017,0.08,VWS V14.01,2013-02-14 01:18:00,
2013-02-13 19:20:00,41.9,29.3,29.95,SW,224,5.0,6.4,61,0.00,,OVC017,0.08,VWS V14.01,2013-02-14 01:20:00,
2013-02-13 19:21:00,41.9,29.3,29.95,SW,218,3.3,5.8,61,0.00,,CLR,0.08,VWS V14.01,2013-02-14 01:21:00,
2013-02-13 19:22:00,41.9,29.3,29.95,SW,229,5.0,5.8,61,0.00,,OVC017,0.08,VWS V14.01,2013-02-14 01:22:00,
2013-02-13 19:24:00,41.9,29.3,29.95,SW,228,4.4,5.2,61,0.00,,OVC017,0.08,VWS V14.01,2013-02-14 01:24:00,
2013-02-13 19:26:00,41.9,29.3,29.95,WSW,237,3.9,7.0,61,0.00,,CLR,0.08,VWS V14.01,2013-02-14 01:26:00,
2013-02-13 19:28:00,41.9,29.3,29.95,WSW,241,5.0,6.4,61,0.00,,OVC017,0.08,VWS V14.01,2013-02-14 01:28:00,
2013-02-13 19:30:00,42.1,29.5,29.95,SW,230,5.0,7.6,61,0.00,,OVC017,0.08,VWS V14.01,2013-02-14 01:30:00,
2013-02-13 19:31:00,42.1,30.0,29.95,WSW,239,7.8,8.1,62,0.00,,CLR,0.08,VWS V14.01,2013-02-14 01:31:00,
2013-02-13 19:32:00,42.1,30.0,29.95,SW,236,5.0,8.1,62,0.00,,OVC017,0.08,VWS V14.01,2013-02-14 01:32:00,
2013-02-13 19:34:00,42.1,30.0,29.95,SW,231,6.1,6.4,62,0.00,,OVC017,0.08,VWS V14.01,2013-02-14 01:34:00,
2013-02-13 19:36:00,41.9,29.9,29.95,SW,230,5.0,6.4,62,0.00,,CLR,0.08,VWS V14.01,2013-02-14 01:36:00,
2013-02-13 19:38:00,41.9,29.9,29.95,SW,224,6.1,6.4,62,0.00,,OVC017,0.08,VWS V14.01,2013-02-14 01:38:00,
2013-02-13 19:40:00,41.9,29.9,29.95,SW,215,4.4,7.0,62,0.00,,OVC017,0.08,VWS V14.01,2013-02-14 01:40:00,
2013-02-13 19:41:00,41.7,29.7,29.95,SW,222,5.0,7.0,62,0.00,,CLR,0.08,VWS V14.01,2013-02-14 01:41:00,
2013-02-13 19:42:00,41.7,29.7,29.95,SW,218,5.0,7.0,62,0.00,,OVC017,0.08,VWS V14.01,2013-02-14 01:42:00,
2013-02-13 19:44:00,41.7,29.7,29.95,SW,223,4.4,6.4,62,0.00,,OVC017,0.08,VWS V14.01,2013-02-14 01:44:00,
2013-02-13 19:46:00,41.7,30.2,29.95,SW,222,5.0,7.0,63,0.00,,CLR,0.08,VWS V14.01,2013-02-14 01:46:00,
2013-02-13 19:48:00,41.5,30.0,29.95,SW,220,4.4,5.2,63,0.00,,OVC017,0.08,VWS V14.01,2013-02-14 01:48:00,
2013-02-13 19:50:00,41.5,30.0,29.95,SW,231,3.3,6.4,63,0.00,,OVC017,0.08,VWS V14.01,2013-02-14 01:50:00,
2013-02-13 19:51:00,41.5,30.0,29.95,SW,230,5.0,7.6,63,0.00,,CLR,0.08,VWS V14.01,2013-02-14 01:51:00,
2013-02-13 19:52:00,41.5,30.0,29.95,SW,215,3.3,7.6,63,0.00,,OVC017,0.08,VWS V14.01,2013-02-14 01:52:00,
2013-02-13 19:54:00,41.5,30.0,29.95,SSW,209,6.1,7.6,63,0.00,,OVC017,0.08,VWS V14.01,2013-02-14 01:54:00,
2013-02-13 19:56:00,41.5,30.0,29.95,SW,219,6.7,7.0,63,0.00,,CLR,0.08,VWS V14.01,2013-02-14 01:56:00,
2013-02-13 19:58:00,41.5,30.0,29.95,SSW,207,3.9,7.6,63,0.00,,OVC017,0.08,VWS V14.01,2013-02-14 01:58:00,
2013-02-13 20:00:00,41.5,30.0,29.95,SW,223,5.0,7.0,63,0.00,,OVC017,0.08,VWS V14.01,2013-02-14 02:00:00,
2013-02-13 20:02:00,41.5,30.0,29.95,SW,221,5.0,6.4,63,0.00,,CLR,0.08,VWS V14.01,2013-02-14 02:02:00,
2013-02-13 20:04:00,41.5,30.0,29.95,SW,228,3.9,8.1,63,0.00,,OVC017,0.08,VWS V14.01,2013-02-14 02:04:00,
2013-02-13 20:06:00,41.5,30.0,29.95,SW,220,5.0,7.0,63,0.00,,CLR,0.08,VWS V14.01,2013-02-14 02:06:00,
2013-02-13 20:08:00,41.5,30.0,29.95,SW,220,4.4,7.0,63,0.00,,OVC017,0.08,VWS V14.01,2013-02-14 02:08:00,
2013-02-13 20:10:00,41.5,30.0,29.95,SW,221,5.0,6.4,63,0.00,,OVC017,0.08,VWS V14.01,2013-02-14 02:10:00,
2013-02-13 20:12:00,41.5,30.0,29.95,SSW,212,3.9,7.0,63,0.00,,CLR,0.08,VWS V14.01,2013-02-14 02:12:00,
2013-02-13 20:14:00,41.5,30.0,29.95,SSW,196,5.0,7.0,63,0.00,,OVC017,0.08,VWS V14.01,2013-02-14 02:14:00,
2013-02-13 20:16:00,41.5,30.5,29.95,SW,218,5.0,7.6,65,0.00,,OVC017,0.08,VWS V14.01,2013-02-14 02:16:00,
2013-02-13 20:17:00,41.5,30.5,29.95,SSW,211,4.4,7.0,65,0.00,,CLR,0.08,VWS V14.01,2013-02-14 02:17:00,
2013-02-13 20:18:00,41.4,30.4,29.95,SW,223,5.0,6.4,65,0.00,,OVC017,0.08,VWS V14.01,2013-02-14 02:18:00,
2013-02-13 20:20:00,41.4,30.4,29.95,SW,219,3.9,5.2,65,0.00,,OVC017,0.08,VWS V14.01,2013-02-14 02:20:00,
2013-02-13 20:22:00,41.2,30.2,29.95,SW,215,3.9,5.2,65,0.00,,CLR,0.08,VWS V14.01,2013-02-14 02:22:00,
2013-02-13 20:24:00,41.2,30.2,29.95,SW,219,4.4,5.2,65,0.00,,OVC017,0.08,VWS V14.01,2013-02-14 02:24:00,
2013-02-13 20:26:00,41.2,30.2,29.95,SW,220,3.9,5.2,65,0.00,,OVC017,0.08,VWS V14.01,2013-02-14 02:26:00,
2013-02-13 20:27:00,41.0,30.0,29.95,SW,219,3.3,5.2,65,0.00,,CLR,0.08,VWS V14.01,2013-02-14 02:27:00,
2013-02-13 20:28:00,41.0,30.0,29.95,SW,223,3.9,4.7,65,0.00,,OVC017,0.08,VWS V14.01,2013-02-14 02:28:00,
2013-02-13 20:30:00,41.0,30.0,29.95,SW,219,3.3,4.1,65,0.00,,OVC017,0.08,VWS V14.01,2013-02-14 02:30:00,
2013-02-13 20:32:00,40.8,29.9,29.95,SW,218,0.0,4.1,65,0.00,,CLR,0.08,VWS V14.01,2013-02-14 02:32:00,
2013-02-13 20:34:00,40.6,29.7,29.95,SW,217,3.3,4.1,65,0.00,,OVC017,0.08,VWS V14.01,2013-02-14 02:34:00,
2013-02-13 20:36:00,40.5,29.5,29.95,SSW,212,4.4,4.7,65,0.00,,OVC017,0.08,VWS V14.01,2013-02-14 02:36:00,
2013-02-13 20:37:00,40.5,29.5,29.95,SSW,213,3.3,5.2,65,0.00,,CLR,0.08,VWS V14.01,2013-02-14 02:37:00,
2013-02-13 20:38:00,40.3,29.4,29.95,SW,224,4.4,5.2,65,0.00,,OVC017,0.08,VWS V14.01,2013-02-14 02:38:00,
2013-02-13 20:40:00,40.3,29.4,29.95,SSW,200,5.0,5.2,65,0.00,,OVC017,0.08,VWS V14.01,2013-02-14 02:40:00,
2013-02-13 20:42:00,40.1,29.2,29.95,SW,231,3.9,5.2,65,0.00,,CLR,0.08,VWS V14.01,2013-02-14 02:42:00,
2013-02-13 20:44:00,40.1,29.2,29.95,SW,224,4.4,5.2,65,0.00,,OVC017,0.08,VWS V14.01,2013-02-14 02:44:00,
2013-02-13 20:46:00,39.9,29.0,29.95,SW,220,5.0,6.4,65,0.00,,OVC017,0.08,VWS V14.01,2013-02-14 02:46:00,
2013-02-13 20:47:00,39.9,29.5,29.95,SW,225,4.4,6.4,66,0.00,,CLR,0.08,VWS V14.01,2013-02-14 02:47:00,
2013-02-13 20:48:00,39.9,29.5,29.95,SW,226,3.3,6.4,66,0.00,,OVC017,0.08,VWS V14.01,2013-02-14 02:48:00,
2013-02-13 20:50:00,39.9,29.5,29.95,SW,221,6.7,7.0,66,0.00,,OVC017,0.08,VWS V14.01,2013-02-14 02:50:00,
2013-02-13 20:52:00,39.7,29.3,29.95,SW,219,5.0,5.2,66,0.00,,CLR,0.08,VWS V14.01,2013-02-14 02:52:00,
2013-02-13 20:54:00,39.7,29.3,29.95,SW,218,3.3,7.0,66,0.00,,OVC017,0.08,VWS V14.01,2013-02-14 02:54:00,
2013-02-13 20:56:00,39.7,29.3,29.95,SW,219,4.4,5.2,66,0.00,,OVC017,0.08,VWS V14.01,2013-02-14 02:56:00,
2013-02-13 20:57:00,39.7,29.3,29.95,SW,217,4.4,5.2,66,0.00,,CLR,0.08,VWS V14.01,2013-02-14 02:57:00,
2013-02-13 20:58:00,39.7,29.3,29.95,SW,218,5.5,5.8,66,0.00,,OVC017,0.08,VWS V14.01,2013-02-14 02:58:00,
2013-02-13 21:00:00,39.9,29.5,29.95,SSW,213,3.9,6.4,66,0.00,,OVC017,0.08,VWS V14.01,2013-02-14 03:00:00,
2013-02-13 21:02:00,39.9,29.5,29.95,SW,224,6.1,7.0,66,0.00,,CLR,0.08,VWS V14.01,2013-02-14 03:02:00,
2013-02-13 21:04:00,39.9,29.5,29.95,SW,217,4.4,6.4,66,0.00,,OVC017,0.08,VWS V14.01,2013-02-14 03:04:00,
2013-02-13 21:06:00,39.9,29.5,29.95,SW,214,3.9,6.4,66,0.00,,OVC017,0.08,VWS V14.01,2013-02-14 03:06:00,
2013-02-13 21:07:00,39.9,29.5,29.95,SW,216,3.9,4.7,66,0.00,,CLR,0.08,VWS V14.01,2013-02-14 03:07:00,
2013-02-13 21:08:00,39.9,29.5,29.95,SSW,211,4.4,4.7,66,0.00,,OVC017,0.08,VWS V14.01,2013-02-14 03:08:00,
2013-02-13 21:10:00,39.7,29.8,29.95,SW,219,3.9,5.2,67,0.00,,OVC017,0.08,VWS V14.01,2013-02-14 03:10:00,
2013-02-13 21:12:00,39.7,29.8,29.95,SW,218,3.9,5.2,67,0.00,,CLR,0.08,VWS V14.01,2013-02-14 03:12:00,
2013-02-13 21:14:00,39.7,29.8,29.95,SSW,212,4.4,5.2,67,0.00,,OVC017,0.08,VWS V14.01,2013-02-14 03:14:00,
2013-02-13 21:16:00,39.7,29.8,29.95,SSW,209,4.4,4.7,67,0.00,,OVC017,0.08,VWS V14.01,2013-02-14 03:16:00,
2013-02-13 21:17:00,39.6,29.6,29.95,SSW,198,3.9,4.7,67,0.00,,CLR,0.08,VWS V14.01,2013-02-14 03:17:00,
2013-02-13 21:18:00,39.6,29.6,29.95,SSW,206,5.0,5.2,67,0.00,,OVC017,0.08,VWS V14.01,2013-02-14 03:18:00,
2013-02-13 21:20:00,39.4,29.5,29.95,SSW,210,4.4,5.2,67,0.00,,OVC017,0.08,VWS V14.01,2013-02-14 03:20:00,
2013-02-13 21:22:00,39.4,29.5,29.95,SW,221,3.9,6.4,67,0.00,,CLR,0.08,VWS V14.01,2013-02-14 03:22:00,
2013-02-13 21:24:00,39.4,29.5,29.95,SW,218,3.9,5.2,67,0.00,,OVC017,0.08,VWS V14.01,2013-02-14 03:24:00,
2013-02-13 21:26:00,39.4,29.5,29.95,SSW,209,2.8,4.7,67,0.00,,OVC017,0.08,VWS V14.01,2013-02-14 03:26:00,
2013-02-13 21:27:00,39.4,29.5,29.95,SSW,198,2.8,4.7,67,0.00,,CLR,0.08,VWS V14.01,2013-02-14 03:27:00,
2013-02-13 21:28:00,39.4,29.5,29.95,SSW,198,2.8,4.7,67,0.00,,OVC017,0.08,VWS V14.01,2013-02-14 03:28:00,
2013-02-13 21:30:00,39.2,29.3,29.95,SSW,198,0.0,3.5,67,0.00,,OVC017,0.08,VWS V14.01,2013-02-14 03:30:00,
2013-02-13 21:32:00,39.0,29.1,29.95,SSW,211,2.8,5.2,67,0.00,,CLR,0.08,VWS V14.01,2013-02-14 03:32:00,
2013-02-13 21:34:00,38.8,29.0,29.95,South,184,4.4,5.2,67,0.00,,OVC017,0.08,VWS V14.01,2013-02-14 03:34:00,
2013-02-13 21:36:00,38.7,28.8,29.95,South,191,2.8,4.7,67,0.00,,OVC017,0.08,VWS V14.01,2013-02-14 03:36:00,
2013-02-13 21:37:00,38.5,28.6,29.95,SSW,197,3.9,4.1,67,0.00,,CLR,0.08,VWS V14.01,2013-02-14 03:37:00,
2013-02-13 21:38:00,38.5,28.6,29.95,SSW,197,3.3,4.1,67,0.00,,OVC017,0.08,VWS V14.01,2013-02-14 03:38:00,
2013-02-13 21:40:00,38.5,28.6,29.95,SSW,198,3.9,4.7,67,0.00,,OVC017,0.08,VWS V14.01,2013-02-14 03:40:00,
2013-02-13 21:42:00,38.1,28.3,29.95,SSW,211,5.5,5.8,67,0.00,,CLR,0.08,VWS V14.01,2013-02-14 03:42:00,
2013-02-13 21:44:00,37.9,28.1,29.95,SSW,210,3.3,5.8,67,0.00,,OVC017,0.08,VWS V14.01,2013-02-14 03:44:00,
2013-02-13 21:46:00,37.8,27.9,29.95,SSW,211,5.0,5.2,67,0.00,,OVC017,0.08,VWS V14.01,2013-02-14 03:46:00,
2013-02-13 21:47:00,37.6,27.8,29.95,SSW,210,4.4,5.2,67,0.00,,CLR,0.08,VWS V14.01,2013-02-14 03:47:00,
2013-02-13 21:48:00,37.6,27.8,29.95,SSW,210,3.9,5.2,67,0.00,,OVC017,0.08,VWS V14.01,2013-02-14 03:48:00,
2013-02-13 21:50:00,37.4,27.6,29.95,SSW,203,2.8,5.2,67,0.00,,OVC017,0.08,VWS V14.01,2013-02-14 03:50:00,
2013-02-13 21:52:00,37.2,27.9,29.95,SSW,208,3.9,5.2,69,0.00,,CLR,0.08,VWS V14.01,2013-02-14 03:52:00,
2013-02-13 21:54:00,37.2,27.9,29.95,SSW,211,3.9,5.2,69,0.00,,OVC017,0.08,VWS V14.01,2013-02-14 03:54:00,
2013-02-13 21:56:00,37.2,27.9,29.95,SW,216,2.8,4.7,69,0.00,,OVC017,0.08,VWS V14.01,2013-02-14 03:56:00,
2013-02-13 21:58:00,37.2,27.9,29.95,SSW,206,3.9,4.7,69,0.00,,CLR,0.08,VWS V14.01,2013-02-14 03:58:00,
2013-02-13 22:00:00,37.4,28.0,29.95,SSW,197,0.0,5.2,69,0.00,,OVC017,0.08,VWS V14.01,2013-02-14 04:00:00,
2013-02-13 22:02:00,37.4,28.0,29.95,SSW,198,2.8,3.5,69,0.00,,OVC017,0.08,VWS V14.01,2013-02-14 04:02:00,
2013-02-13 22:03:00,37.4,28.0,29.95,SSW,199,2.8,4.1,69,0.00,,CLR,0.08,VWS V14.01,2013-02-14 04:03:00,
2013-02-13 22:04:00,37.2,28.3,29.95,SSW,199,3.9,4.1,70,0.00,,OVC017,0.08,VWS V14.01,2013-02-14 04:04:00,
2013-02-13 22:06:00,37.2,28.3,29.95,SW,217,4.4,7.6,70,0.00,,OVC017,0.08,VWS V14.01,2013-02-14 04:06:00,
2013-02-13 22:08:00,37.0,28.2,29.95,SW,221,3.9,5.2,70,0.00,,CLR,0.08,VWS V14.01,2013-02-14 04:08:00,
2013-02-13 22:10:00,37.0,28.2,29.95,SW,216,3.3,5.2,70,0.00,,OVC017,0.08,VWS V14.01,2013-02-14 04:10:00,
2013-02-13 22:12:00,37.0,28.2,29.95,SSW,213,4.4,4.7,70,0.00,,OVC017,0.08,VWS V14.01,2013-02-14 04:12:00,
2013-02-13 22:13:00,37.0,28.2,29.95,SW,214,3.3,4.7,70,0.00,,CLR,0.08,VWS V14.01,2013-02-14 04:13:00,
2013-02-13 22:14:00,37.0,28.2,29.95,SW,215,3.9,4.7,70,0.00,,OVC017,0.08,VWS V14.01,2013-02-14 04:14:00,
2013-02-13 22:16:00,37.0,28.2,29.95,SSW,208,3.3,4.7,70,0.00,,OVC017,0.08,VWS V14.01,2013-02-14 04:16:00,
2013-02-13 22:18:00,37.0,28.6,29.95,SSW,210,3.3,4.7,71,0.00,,CLR,0.08,VWS V14.01,2013-02-14 04:18:00,
2013-02-13 22:20:00,37.0,28.6,29.95,SSW,208,4.4,7.0,71,0.00,,OVC017,0.08,VWS V14.01,2013-02-14 04:20:00,
2013-02-13 22:22:00,37.2,28.8,29.95,SW,214,6.1,6.4,71,0.00,,OVC017,0.08,VWS V14.01,2013-02-14 04:22:00,
2013-02-13 22:23:00,37.2,28.8,29.95,SSW,211,4.4,7.0,71,0.00,,CLR,0.08,VWS V14.01,2013-02-14 04:23:00,
2013-02-13 22:24:00,37.2,28.8,29.95,SSW,213,3.9,7.0,71,0.00,,OVC017,0.08,VWS V14.01,2013-02-14 04:24:00,
2013-02-13 22:26:00,37.4,29.0,29.95,SSW,212,3.3,5.2,71,0.00,,OVC017,0.08,VWS V14.01,2013-02-14 04:26:00,
2013-02-13 22:28:00,37.4,29.0,29.95,SW,229,4.4,5.2,71,0.00,,CLR,0.08,VWS V14.01,2013-02-14 04:28:00,
2013-02-13 22:30:00,37.6,29.1,29.95,SW,214,3.9,5.2,71,0.00,,OVC017,0.08,VWS V14.01,2013-02-14 04:30:00,
2013-02-13 22:32:00,37.6,29.1,29.95,SW,217,3.9,5.2,71,0.00,,OVC017,0.08,VWS V14.01,2013-02-14 04:32:00,
2013-02-13 22:33:00,37.6,29.1,29.95,SW,220,5.0,5.2,71,0.00,,CLR,0.08,VWS V14.01,2013-02-14 04:33:00,
2013-02-13 22:34:00,37.6,29.1,29.95,SW,214,3.9,5.2,71,0.00,,OVC017,0.08,VWS V14.01,2013-02-14 04:34:00,
2013-02-13 22:36:00,37.6,29.1,29.95,SW,222,3.9,7.0,71,0.00,,OVC017,0.08,VWS V14.01,2013-02-14 04:36:00,
2013-02-13 22:38:00,37.6,29.1,29.95,SW,224,4.4,5.2,71,0.00,,CLR,0.08,VWS V14.01,2013-02-14 04:38:00,
2013-02-13 22:40:00,37.6,29.1,29.95,SW,232,3.9,6.4,71,0.00,,OVC017,0.08,VWS V14.01,2013-02-14 04:40:00,
2013-02-13 22:42:00,37.6,29.1,29.95,SW,223,4.4,5.2,71,0.00,,OVC017,0.08,VWS V14.01,2013-02-14 04:42:00,
2013-02-13 22:43:00,37.6,29.1,29.95,SW,226,4.4,6.4,71,0.00,,CLR,0.08,VWS V14.01,2013-02-14 04:43:00,
2013-02-13 22:44:00,37.6,29.1,29.95,SSW,213,5.0,7.0,71,0.00,,OVC017,0.08,VWS V14.01,2013-02-14 04:44:00,
2013-02-13 22:46:00,37.6,29.6,29.95,SSW,211,5.5,6.4,73,0.00,,OVC017,0.08,VWS V14.01,2013-02-14 04:46:00,
2013-02-13 22:48:00,37.6,29.6,29.95,SW,214,4.4,7.6,73,0.00,,CLR,0.08,VWS V14.01,2013-02-14 04:48:00,
2013-02-13 22:50:00,37.6,29.6,29.95,SSW,204,7.2,8.1,73,0.00,,OVC017,0.08,VWS V14.01,2013-02-14 04:50:00,
2013-02-13 22:52:00,37.6,29.6,29.95,SSW,213,6.7,7.6,73,0.00,,OVC017,0.08,VWS V14.01,2013-02-14 04:52:00,
2013-02-13 22:53:00,37.6,29.6,29.95,SSW,213,5.0,7.0,73,0.00,,CLR,0.08,VWS V14.01,2013-02-14 04:53:00,
2013-02-13 22:54:00,37.6,29.6,29.95,SW,215,3.3,7.0,73,0.00,,OVC017,0.08,VWS V14.01,2013-02-14 04:54:00,
2013-02-13 22:56:00,37.6,29.6,29.95,SW,216,7.8,8.1,73,0.00,,OVC017,0.08,VWS V14.01,2013-02-14 04:56:00,
2013-02-13 22:58:00,37.8,29.8,29.95,SW,225,5.0,8.1,73,0.00,,CLR,0.08,VWS V14.01,2013-02-14 04:58:00,
2013-02-13 23:00:00,37.8,29.8,29.95,SW,224,6.1,8.1,73,0.00,,CLR,0.08,VWS V14.01,2013-02-14 05:00:00,
2013-02-13 23:02:00,37.9,29.9,29.95,SW,219,6.1,6.4,73,0.00,,OVC017,0.08,VWS V14.01,2013-02-14 05:02:00,
2013-02-13 23:04:00,37.9,29.9,29.95,SW,216,4.4,7.0,73,0.00,,OVC017,0.08,VWS V14.01,2013-02-14 05:04:00,
2013-02-13 23:05:00,37.9,29.9,29.95,SW,216,5.0,6.4,73,0.00,,CLR,0.08,VWS V14.01,2013-02-14 05:05:00,
2013-02-13 23:06:00,37.9,29.9,29.95,SW,224,5.0,6.4,73,0.00,,OVC017,0.08,VWS V14.01,2013-02-14 05:06:00,
2013-02-13 23:08:00,37.9,29.9,29.95,SW,214,5.0,7.0,73,0.00,,OVC017,0.08,VWS V14.01,2013-02-14 05:08:00,
2013-02-13 23:10:00,37.9,29.9,29.95,SW,218,5.0,7.0,73,0.00,,CLR,0.08,VWS V14.01,2013-02-14 05:10:00,
2013-02-13 23:12:00,37.9,29.9,29.95,SSW,213,6.7,7.6,73,0.00,,OVC017,0.08,VWS V14.01,2013-02-14 05:12:00,
2013-02-13 23:14:00,37.9,29.9,29.95,WSW,237,6.7,8.1,73,0.00,,OVC017,0.08,VWS V14.01,2013-02-14 05:14:00,
2013-02-13 23:15:00,37.9,29.9,29.95,SW,227,6.7,8.1,73,0.00,,CLR,0.08,VWS V14.01,2013-02-14 05:15:00,
2013-02-13 23:16:00,37.9,30.4,29.95,SW,229,7.2,8.1,74,0.00,,OVC017,0.08,VWS V14.01,2013-02-14 05:16:00,
2013-02-13 23:18:00,37.9,30.4,29.95,SW,224,7.2,7.6,74,0.00,,OVC017,0.08,VWS V14.01,2013-02-14 05:18:00,
2013-02-13 23:20:00,38.1,30.5,29.95,SSW,212,6.7,9.3,74,0.00,,CLR,0.08,VWS V14.01,2013-02-14 05:20:00,
2013-02-13 23:22:00,38.1,30.5,29.95,WSW,238,7.2,8.1,74,0.00,,OVC017,0.08,VWS V14.01,2013-02-14 05:22:00,
2013-02-13 23:24:00,38.1,30.1,29.95,SW,236,6.7,8.1,73,0.00,,OVC017,0.08,VWS V14.01,2013-02-14 05:24:00,
2013-02-13 23:25:00,38.1,30.1,29.95,WSW,249,4.4,7.6,73,0.00,,CLR,0.08,VWS V14.01,2013-02-14 05:25:00,
2013-02-13 23:26:00,38.1,30.1,29.95,SW,235,5.0,7.6,73,0.00,,OVC017,0.08,VWS V14.01,2013-02-14 05:26:00,
2013-02-13 23:28:00,37.9,29.9,29.95,SW,224,6.7,7.6,73,0.00,,OVC017,0.08,VWS V14.01,2013-02-14 05:28:00,
2013-02-13 23:30:00,37.9,29.9,29.95,WSW,249,6.1,8.1,73,0.00,,CLR,0.08,VWS V14.01,2013-02-14 05:30:00,
2013-02-13 23:32:00,37.8,29.8,29.95,WSW,249,7.2,7.6,73,0.00,,OVC017,0.08,VWS V14.01,2013-02-14 05:32:00,
2013-02-13 23:34:00,37.6,29.6,29.95,SW,235,6.1,9.9,73,0.00,,OVC017,0.08,VWS V14.01,2013-02-14 05:34:00,
2013-02-13 23:35:00,37.6,29.6,29.95,SW,233,6.7,9.9,73,0.00,,CLR,0.08,VWS V14.01,2013-02-14 05:35:00,
2013-02-13 23:36:00,37.6,29.6,29.95,SW,230,7.2,7.6,73,0.00,,OVC017,0.08,VWS V14.01,2013-02-14 05:36:00,
2013-02-13 23:38:00,37.6,29.6,29.95,SW,230,5.5,8.1,73,0.00,,OVC017,0.08,VWS V14.01,2013-02-14 05:38:00,
2013-02-13 23:40:00,37.6,30.0,29.95,SW,231,6.1,8.1,74,0.00,,CLR,0.08,VWS V14.01,2013-02-14 05:40:00,
2013-02-13 23:42:00,37.6,30.0,29.95,WSW,238,6.7,7.0,74,0.00,,OVC017,0.08,VWS V14.01,2013-02-14 05:42:00,
2013-02-13 23:44:00,37.6,30.0,29.95,SW,220,7.2,8.1,74,0.00,,OVC017,0.08,VWS V14.01,2013-02-14 05:44:00,
2013-02-13 23:45:00,37.6,30.0,29.95,SW,225,6.7,8.1,74,0.00,,CLR,0.08,VWS V14.01,2013-02-14 05:45:00,
2013-02-13 23:46:00,37.6,30.0,29.95,SW,230,5.0,7.6,74,0.00,,OVC017,0.08,VWS V14.01,2013-02-14 05:46:00,
2013-02-13 23:48:00,37.6,30.0,29.95,SW,218,6.1,8.1,74,0.00,,OVC017,0.08,VWS V14.01,2013-02-14 05:48:00,
2013-02-13 23:50:00,37.8,30.2,29.95,SW,228,6.7,7.6,74,0.00,,CLR,0.08,VWS V14.01,2013-02-14 05:50:00,
2013-02-13 23:52:00,37.8,30.2,29.95,SW,218,5.0,8.1,74,0.00,,OVC017,0.08,VWS V14.01,2013-02-14 05:52:00,
2013-02-13 23:54:00,37.8,30.2,29.95,SW,226,5.0,7.0,74,0.00,,OVC017,0.08,VWS V14.01,2013-02-14 05:54:00,
2013-02-13 23:55:00,37.9,30.4,29.95,SW,224,6.7,7.0,74,0.00,,CLR,0.08,VWS V14.01,2013-02-14 05:55:00,
2013-02-13 23:56:00,37.9,30.4,29.95,SW,222,5.5,7.0,74,0.00,,OVC017,0.08,VWS V14.01,2013-02-14 05:56:00,
2013-02-13 23:58:00,37.9,30.4,29.95,SW,220,4.4,6.4,74,0.00,,OVC017,0.08,VWS V14.01,2013-02-14 05:58:00,